     2              OBSERVATION DATA    GPS                 RINEX VERSION / TYPE
ASRINEXO V2.2.0 UX USGS 10-MAR-94 10:35                     PGM / RUN BY / DATE
                                                            COMMENT
Original Marker Name: VAND                                  COMMENT
Campaign Name: USGS-Tejon Monit                             COMMENT
4-Character Station Name: VAND                              COMMENT
6-Character Antenna Code: ASHL12                            COMMENT
Vertical Measurement Point: BBE                             COMMENT
Vertical Offset to Rinex Ref. Point: 0.0595                 COMMENT
Radial Measurement Point: EGP                               COMMENT
Radial Offset to Rinex Ref. Point: 0.1424                   COMMENT
Antenna Height from Field Measurement: 1.4160 m             COMMENT
Additional Antenna Identification Info.:                    COMMENT
Original Ashtech L1/L2                                      COMMENT
Original XYZ: -2678081.3600 -4525271.3100 3597285.2500      COMMENT
New XYZ position is based on association with SCEC monument COMMENT
E1E9D3Y3+0011. Position of that monument is believed to be  COMMENT
valid to within 1 m horizontally; vertical accuracy         COMMENT
should be no worse than 3-times this value.                 COMMENT
                                                            COMMENT
Revised Rinex header created by UCSD GPS archive for        COMMENT
GSAC on 12-Nov-1999 (1999:316) 18:20:01 GMT                 COMMENT
For assistance contact dagnew@ucsd.edu or hjohnson@ucsd.edu COMMENT
                                                            COMMENT
VAND                                                        MARKER NAME
                                                            MARKER NUMBER
GDH US GEOLOGICAL SURVEY                                    OBSERVER / AGENCY
763 ASHTECH L-XII 6B                                        REC # / TYPE / VERS
26 ASHTECH GEODETIC L                                       ANT # / TYPE
 -2678095.0000 -4525451.0000  3597410.0000                  APPROX POSITION XYZ
        1.3493        0.0000        0.0000                  ANTENNA: DELTA H/E/N
     1     2     0                                          WAVELENGTH FACT L1/2
     3    C1    L1    L2                                    # / TYPES OF OBSERV
    30                                                      INTERVAL
  1991    12     4    12    31   30.000000                  TIME OF FIRST OBS
  1991    12     4    14    50    0.000000                  TIME OF LAST OBS
                                                            END OF HEADER
 91 12  4 12 31 30.0000000  0  4 12 20 13 16
  21894371.749       69289.336 8     53991.164 6
  22359744.678      -73333.628 8    -57143.092 6
  24037496.595       76073.191 4     59277.759 2
  23890679.520      -81301.325 6    -63352.046 3
 91 12  4 12 32  0.0000000  0  4 12 20 13 16
  21608154.778      140619.203 8    109572.875 6
  22045739.945     -148019.728 8   -115340.058 6
  23752494.387      153790.720 5    119836.814 1
  23575105.402     -164228.546 6   -127970.651 3
 91 12  4 12 32 30.0000000  0  5 12 20 24 13 16
  21621826.814      212467.227 8    165558.348 6
  22031578.361     -222445.445 8   -173334.119 6
  20772417.660       92086.773 8     71755.699 9
  23767287.948      231481.756 5    180375.491 2
  23559354.905     -246995.193 6   -192464.125 3
 91 12  4 12 33  0.0000000  0  5 12 20 24 13 16
  21635599.590      284833.062 8    221947.308 6
  22017462.321     -296605.104 8   -231120.866 5
  20780645.455      135315.146 8    105440.138 9
  23782066.520      309147.990 5    240894.525 3
  23543634.685     -329596.058 6   -256828.439 2
 91 12  4 12 33 30.0000000  0  5 12 20 24 13 16
  21649467.383      357718.352 8    278741.027 6
  22003403.553     -370489.903 8   -288693.432 6
  20788960.501      179014.279 8    139491.418 9
  23796837.292      386793.010 5    301397.051 2
  23527951.337     -412039.533 6   -321070.097 3
 91 12  4 12 34  0.0000000  0  5 12 20 24 13 16
  21663483.276      431362.909 8    336126.403 6
  21989442.821     -443870.860 8   -345873.396 5
  20797414.643      223427.282 9    174098.951 9
  23811656.034      464658.709 5    362071.570 2
  23512331.245     -494095.831 6   -385010.044 1
 91 12  4 12 34 30.0000000  0  5 12 20 24 13 16
  21677601.706      505561.083 8    393943.154 6
  21975532.449     -516961.270 8   -402826.955 5
  20805960.538      268340.720 8    209096.441 9
  23826468.477      542541.849 5    422759.882 2
  23496755.530     -575964.985 6   -448804.194 2
 91 12  4 12 35  0.0000000  0  5 12 20 24 13 16
  21691822.970      580287.892 8    452171.812 6
  21961671.846     -589794.969 8   -459580.475 6
  20814596.354      313724.618 8    244460.515 9
  23841290.518      620419.717 5    483443.870 2
  23481210.405     -657668.509 6   -512469.267 3
 91 12  4 12 35 30.0000000  0  5 12 20 24 13 16
  21706142.549      655543.363 8    510812.435 5
  21947862.512     -662369.360 8   -516131.948 6
  20823323.313      359579.899 9    280191.907 9
  23856114.949      698294.541 6    544125.455 1
  23465692.240     -739199.672 6   -576000.053 4
 91 12  4 12 36  0.0000000  0  6  3 12 20 24 13 16
  24816003.630     -144739.235 5   -112783.768 2
  21720558.977      731310.920 8    569852.090 6
  21934093.941     -734692.450 8   -572487.606 7
  20832137.505      405890.864 8    316278.368 9
  23870931.894      776152.131 5    604793.597 1
  23450201.071     -820566.305 6   -639402.606 4
 91 12  4 12 36 30.0000000  0  6  3 12 20 24 13 16
  24804419.652     -205667.167 5   -160260.102 2
  21735075.220      807592.053 8    629291.923 6
  21920389.535     -806733.751 8   -628623.686 6
  20841040.746      452677.544 8    352735.526 9
  23885735.350      853995.575 5    665451.065 3
  23434758.152     -901762.410 6   -702672.290 3
 91 12  4 12 37  0.0000000  0  6  3 12 20 24 13 16
  24792842.567     -266461.070 5   -207631.976 2
  21749688.311      884381.642 8    689127.959 6
  21906738.177     -878486.642 8   -684535.015 6
  20850032.127      499945.948 8    389568.051 9
  23900552.888      931821.924 5    726094.898 4
  23419339.227     -982800.154 6   -765818.584 3
 91 12  4 12 37 30.0000000  0  6  3 12 20 24 13 16
  24781308.060     -327113.192 4   -254893.399 2
  21764399.124      961684.775 8    749364.166 6
  21893140.793     -949929.917 8   -740205.106 6
  20859118.525      547692.678 8    426773.294 9
  23915360.235     1009638.812 6    786731.371 2
  23403948.484    -1063676.437 6   -828839.046 2
 91 12  4 12 38  0.0000000  0  6  3 12 20 24 13 16
  24769793.028     -387638.792 4   -302056.126 1
  21779203.173     1039484.086 8    809987.004 6
  21879601.273    -1021077.572 8   -795644.843 6
  20868290.691      595885.305 8    464325.987 9
  23930156.502     1087431.159 5    847348.890 1
  23388585.626    -1144408.346 6   -891747.020 2
 91 12  4 12 38 30.0000000  0  6  3 12 20 24 13 16
  24758298.395     -448026.438 5   -349111.419 1
  21794104.350     1117789.019 8    871003.816 6
  21866120.195    -1091927.313 8   -850852.424 6
  20877545.275      644514.820 8    502219.110 9
  23944962.052     1165210.947 6    907956.461 2
  23373251.841    -1224976.667 6   -954527.516 3
 91 12  4 12 39  0.0000000  0  6  3 12 20 24 13 16
  24746828.629     -508287.795 4   -396068.392 1
  21809098.782     1196585.806 8    932403.911 5
  21852691.589    -1162502.303 8   -905845.920 7
  20886876.325      693544.518 9    540424.070 9
  23959759.208     1242966.218 5    968544.898 4
  23357948.628    -1305392.643 6  -1017189.331 4
 91 12  4 12 39 30.0000000  0  6  3 12 20 24 13 16
  24735393.937     -568423.290 4   -442927.238 1
  21824187.322     1275871.467 8    994184.951 5
  21839314.863    -1232793.427 8   -960618.220 7
  20896279.602      742973.293 9    578939.994 9
  23974554.253     1320696.672 5   1029114.034 2
  23342676.005    -1385644.198 6  -1079723.010 2
 91 12  4 12 40  0.0000000  0  6  3 12 20 24 13 16
  24723972.753     -628413.556 4   -489672.935 2
  21839365.818     1355663.382 8   1056360.466 6
  21825995.985    -1302771.802 8  -1015146.825 6
  20905769.536      792834.317 9    617792.738 9
  23989338.828     1398422.343 5   1089679.552 1
  23327445.054    -1465701.591 6  -1142105.394 5
 91 12  4 12 40 30.0000000  0  6  3 12 20 24 13 16
  24712571.042     -688262.052 4   -536308.139 1
  21854649.835     1435956.061 8   1118926.162 6
  21812737.658    -1372433.734 8  -1069428.849 7
  20915342.813      843138.924 9    656991.125 9
  24004125.497     1476139.484 5   1150238.336 1
  23312245.269    -1545561.323 6  -1204333.760 5
 91 12  4 12 41  0.0000000  0  6  3 12 20 24 13 16
  24701221.804     -747980.993 4   -582842.378 3
  21870019.900     1516734.746 8   1181870.602 6
  21799546.794    -1441775.054 8  -1123461.044 6
  20924999.729      893885.635 9    696534.026 9
  24018919.041     1553836.241 5   1210781.209 4
  23297087.469    -1625229.073 6  -1266412.508 4
 91 12  4 12 41 30.0000000  0  6  3 12 20 24 13 16
  24689878.849     -807570.326 4   -629275.663 1
  21885484.388     1597997.804 8   1245192.470 6
  21786413.481    -1510785.650 8  -1177235.533 6
  20934740.876      945075.557 9    736422.269 9
  24033695.222     1631513.271 5   1271308.772 2
  23281966.523    -1704686.477 6  -1328327.370 3
 91 12  4 12 42  0.0000000  0  6  3 12 20 24 13 16
  24678566.187     -867023.284 4   -675602.568 1
  21901041.222     1679749.288 8   1308894.900 6
  21773341.924    -1579473.043 8  -1230758.167 7
  20944563.586      996698.799 9    776648.172 9
  24048478.890     1709177.064 5   1331826.117 2
  23266887.267    -1783924.335 6  -1390071.142 4
 91 12  4 12 42 30.0000000  0  6  3 12 20 24 13 16
  24667273.906     -926334.011 4   -721818.683 2
  21916691.589     1761992.544 8   1372980.543 5
  21760333.031    -1647843.366 8  -1284033.738 6
  20954468.121     1048762.261 9    817217.094 9
  24063255.350     1786833.827 5   1392337.802 2
  23251851.182    -1862939.234 6  -1451641.185 3
 91 12  4 12 43  0.0000000  0  6  3 12 20 24 13 16
  24656016.387     -985519.257 4   -767937.069 3
  21932433.099     1844708.792 8   1437434.774 6
  21747380.799    -1715907.572 8  -1337070.775 6
  20964456.015     1101244.988 9    858112.730 9
  24078031.217     1864467.459 5   1452831.445 2
  23236855.564    -1941750.262 6  -1513052.368 4
 91 12  4 12 43 30.0000000  0  6  3 12 20 24 13 16
  24644775.969    -1044582.017 4   -813960.051 2
  21948261.232     1927892.783 8   1502253.461 6
  21734485.228    -1783671.322 8  -1389873.698 6
  20974524.232     1154148.177 9    899335.985 9
  24092789.407     1942075.241 4   1513304.965 1
  23221893.224    -2020367.516 6  -1574312.565 3
 91 12  4 12 44  0.0000000  0  6  3 12 20 24 13 16
  24633560.138    -1103514.711 4   -859881.619 1
  21964181.118     2011549.692 7   1567440.645 6
  21721647.818    -1851134.460 8  -1442442.375 7
  20984675.215     1207490.018 9    940901.054 9
  24107563.477     2019664.494 5   1573764.341 2
  23206974.038    -2098784.478 6  -1635416.689 4
 91 12  4 12 44 30.0000000  0  6  3 12 20 24 13 16
  24622364.689    -1162321.050 4   -905704.738 1
  21980189.424     2095673.363 7   1632991.569 5
  21708870.071    -1918280.455 8  -1494763.926 7
  20994909.227     1261280.447 9    982815.670 9
  24122313.570     2097232.296 4   1634206.612 2
  23192092.650    -2176991.416 6  -1696357.167 3
 91 12  4 12 45  0.0000000  0  6  3 12 20 24 13 16
  24611197.422    -1221006.285 4   -951433.555 1
  21996284.685     2180256.474 7   1698900.501 5
  21696153.172    -1985105.179 8  -1546835.137 7
  21005229.879     1315505.290 9   1025068.799 9
  24137073.855     2174773.359 4   1694628.185 3
  23177251.117    -2254972.217 6  -1757121.415 4
 91 12  4 12 45 30.0000000  0  6  3 12 20 24 13 16
  24600060.728    -1279566.621 4   -997064.863 1
  22012468.976     2265300.396 7   1765168.486 6
  21683497.733    -2051616.173 8  -1598661.878 6
  21015629.389     1370160.460 9   1067657.231 9
  24151827.543     2252291.553 5   1755031.882 1
  23162456.962    -2332713.736 6  -1817699.212 4
 91 12  4 12 46  0.0000000  0  6  3 12 20 24 13 16
  24588939.635    -1338002.826 4  -1042599.553 2
  22028738.722     2350801.888 7   1831793.016 5
  21670902.253    -2117809.814 8  -1650241.334 7
  21026111.927     1425245.535 9   1110580.669 9
  24166576.135     2329786.923 5   1815418.006 1
  23147711.075    -2410203.138 6  -1878080.565 2
 91 12  4 12 46 30.0000000  0  6  3 12 20 24 13 16
  24577849.707    -1396310.243 4  -1088033.924 1
  22045095.404     2436763.220 7   1898775.882 5
  21658367.326    -2183674.819 8  -1701564.704 6
  21036674.212     1480759.179 9   1153838.059 9
  24181311.832     2407264.523 4   1875790.047 2
  23133014.047    -2487443.623 6  -1938267.936 3
 91 12  4 12 47  0.0000000  0  6  3 12 20 24 13 16
  24566770.581    -1454500.777 4  -1133377.202 2
  22061537.523     2523170.386 7   1966106.130 6
  21645891.467    -2249230.868 8  -1752647.333 7
  21047316.838     1536680.472 9   1197413.087 9
  24196061.314     2484713.060 4   1936139.529 2
  23118355.393    -2564463.422 6  -1998283.362 3
 91 12  4 12 47 30.0000000  0  6  3 12 20 24 13 16
  24555716.636    -1512572.386 4  -1178627.859 2
  22078065.078     2610022.788 7   2033783.309 5
  21633479.162    -2314464.571 8  -1803478.789 7
  21058032.929     1593004.543 9   1241301.965 9
  24210788.617     2562134.408 5   1996467.747 2
  23103739.911    -2641271.657 6  -2058133.921 4
 91 12  4 12 48  0.0000000  0  6  3 12 20 24 13 16
  24544698.953    -1570521.170 4  -1223782.770 2
  22094678.680     2697321.988 7   2101808.668 5
  21621131.301    -2379352.366 8  -1854040.712 8
  21068830.548     1649734.577 9   1285507.181 9
  24225521.924     2639533.079 5   2056778.170 1
  23089169.695    -2717859.163 6  -2117812.498 3
 91 12  4 12 48 30.0000000  0  6  3 12 20 24 13 16
  24533687.289    -1628350.567 4  -1268844.663
  22111375.013     2785062.161 7   2170177.637 4
  21608850.012    -2443897.613 8  -1904335.700 8
  21079698.334     1706847.281 9   1330010.593 8
  24240240.222     2716905.423 5   2117068.153 2
  23074630.365    -2794233.884 6  -2177325.277 4
 91 12  4 12 49  0.0000000  0  6  3 12 20 24 13 16
  24522712.778    -1686060.522 4  -1313813.487 1
  22128156.504     2873240.919 7   2238888.333 6
  21596634.057    -2508091.084 8  -1954356.575 7
  21090634.159     1764322.650 8   1374796.585 8
  24254961.540     2794253.060 5   2177338.941 2
  23060142.601    -2870383.606 6  -2236662.708 4
 91 12  4 12 49 30.0000000  0  6  3 12 20 24 13 16
  24511745.473    -1743656.274 4  -1358693.321 1
  22145015.927     2961850.493 7   2307934.757 5
  21584483.470    -2571931.231 8  -2004102.146 7
  21101641.931     1822162.054 8   1419866.262 8
  24269674.447     2871570.754 5   2237586.400 1
  23045693.193    -2946308.133 6  -2295824.678 5
 91 12  4 12 50  0.0000000  0  6  3 12 20 24 13 16
  24500804.849    -1801139.701 4  -1403485.554 2
  22161961.100     3050886.688 7   2377313.630 6
  21572398.235    -2635436.987 8  -2053587.157 8
  21112718.369     1880363.111 8   1465217.735 8
  24284378.978     2948856.797 5   2297809.132 2
  23031286.974    -3022005.960 6  -2354809.993 2
 91 12  4 12 50 30.0000000  0  6  3 12 20 24 13 16
  24489889.407    -1858507.483 5  -1448187.698 2
  22178985.114     3140350.929 7   2447025.998 7
  21560377.164    -2698606.385 8  -2102810.058 7
  21123862.549     1938930.808 8   1510854.900 9
  24299082.287     3026115.579 5   2358011.009 2
  23016929.318    -3097478.784 6  -2413619.983 2
 91 12  4 12 51  0.0000000  0  6  3 12 20 24 13 16
  24479003.647    -1915764.449 5  -1492803.534 1
  22196089.765     3230235.073 7   2517065.576 5
  21548423.538    -2761431.141 8  -2151764.411 7
  21135081.992     1997884.993 8   1556793.205 8
  24313771.234     3103341.363 5   2418186.864 3
  23002608.518    -3172722.566 6  -2472251.491 3
 91 12  4 12 51 30.0000000  0  6  3 12 20 24 13 16
  24468128.060    -1972902.553 5  -1537326.749 2
  22213272.663     3320544.879 7   2587436.866 5
  21536533.762    -2823906.590 8  -2200446.577 8
  21146377.867     2057250.895 8   1603052.359 8
  24328469.745     3180543.979 5   2478344.628 2
  22988334.205    -3247726.653 6  -2530696.231 3
 91 12  4 12 52  0.0000000  0  6  3 12 20 24 13 16
  24457270.186    -2029914.743 5  -1581751.862 3
  22230540.125     3411284.930 7   2658143.382 5
  21524714.747    -2886021.416 8  -2248847.738 8
  21157754.397     2117029.431 8   1649633.042 8
  24343152.690     3257731.167 5   2538490.373 2
  22974110.847    -3322465.548 6  -2588934.334 5
 91 12  4 12 52 30.0000000  0  6  3 12 20 24 13 16
  24446443.774    -2086808.881 5  -1626084.986 1
  22247888.503     3502444.974 7   2729177.169 4
  21512965.882    -2947761.954 8  -2296957.243 8
  21169207.970     2177219.568 8   1696534.435 9
  24357836.821     3334894.385 5   2598617.721 3
  22959940.258    -3396936.413 6  -2646963.565 4
 91 12  4 12 53  0.0000000  0  6  3 12 20 24 13 16
  24435641.950    -2143594.700 5  -1670333.706 2
  22265314.849     3594012.920 7   2800528.831 5
  21501286.870    -3009141.344 8  -2344785.336 7
  21180739.178     2237809.465 8   1743747.328 8
  24372521.563     3412024.803 5   2658719.287 1
  22945823.031    -3471136.123 6  -2704781.521 4
 91 12  4 12 53 30.0000000  0  6  3 12 20 24 13 16
  24424856.023    -2200271.451 5  -1714497.435 1
  22282817.033     3685986.882 7   2872196.857 5
  21489675.600    -3070172.838 8  -2392342.331 8
  21192338.443     2298775.470 8   1791253.304 8
  24387185.609     3489123.540 5   2718796.178 3
  22931758.278    -3545060.161 6  -2762384.660 4
 91 12  4 12 54  0.0000000  0  6  3 12 20 24 13 16
  24414089.884    -2256837.723 5  -1758575.064 1
  22300398.354     3778365.626 7   2944180.276 6
  21478123.398    -3130855.967 8  -2439627.875 7
  21204010.562     2360109.665 8   1839046.188 8
  24401861.050     3566192.913 5   2778850.141 2
  22917745.369    -3618700.614 6  -2819766.837 3
 91 12  4 12 54 30.0000000  0  6  3 12 20 24 13 16
  24403343.516    -2313294.367 5  -1802567.215 2
  22318052.234     3871145.692 7   3016476.424 5
  21466638.956    -3191195.816 8  -2486645.939 8
  21215751.348     2421810.539 8   1887124.784 9
  24416520.891     3643231.896 5   2838880.653 1
  22903778.337    -3692067.020 6  -2876935.457 4
 91 12  4 12 55  0.0000000  0  6  3 12 20 24 13 16
  24392621.736    -2369647.674 5  -1846478.812 1
  22335779.857     3964318.677 7   3089078.761 5
  21455221.052    -3251206.224 8  -2533407.289 9
  21227559.264     2483857.165 8   1935472.803 8
  24431167.854     3720235.269 5   2898883.228 4
  22889872.468    -3765162.563 6  -2933893.006 5
 91 12  4 12 55 30.0000000  0  6  3 12 20 24 13 16
  24381920.355    -2425895.430 5  -1890308.204 3
  22353586.339     4057883.864 7   3161986.681 5
  21443867.626    -3310880.202 8  -2579906.496 9
  21239433.143     2546250.313 8   1984090.836 9
  24445811.518     3797205.481 5   2958859.964 2
  22876016.367    -3837981.734 7  -2990635.214 3
 91 12  4 12 56  0.0000000  0  6  3 12 20 24 13 16
  24371237.245    -2482033.750 5  -1934052.342 1
  22371468.048     4151843.132 7   3235201.678 5
  21432579.238    -3370194.731 8  -2626125.610 9
  21251373.577     2609011.180 8   2032995.405 9
  24460459.684     3874147.567 5   3018814.722 1
  22862209.423    -3910521.888 6  -3047160.015 5
 91 12  4 12 56 30.0000000  0  6  3 12 20 24 13 16
  24360572.718    -2538068.771 5  -1977716.021 2
  22389420.221     4246187.544 7   3308716.816 5
  21421366.094    -3429128.768 8  -2672048.224 8
  21263388.662     2672141.652 8   2082187.972 8
  24475094.938     3951055.682 5   3078743.196 1
  22848456.435    -3982781.581 6  -3103466.261 4
 91 12  4 12 57  0.0000000  0  6  3 12 20 24 13 16
  24349933.984    -2594001.530 5  -2021300.028
  22407443.155     4340913.226 7   3382529.030 5
  21410225.509    -3487669.195 9  -2717664.130 8
  21275472.694     2735639.906 8   2131667.134 8
  24489721.518     4027929.241 5   3138644.666 2
  22834762.220    -4054752.031 7  -3159547.115 4
 91 12  4 12 57 30.0000000  0  6  3 12 20 24 13 16
  24339294.656    -2649838.910 5  -2064809.451 2
  22425542.521     4436011.280 7   3456631.380 5
  21399160.762    -3545808.524 8  -2762967.504 8
  21287628.986     2799510.520 8   2181436.444 8
  24504341.206     4104762.178 4   3198514.411 4
  22821121.961    -4126449.885 7  -3215415.579 5
 91 12  4 12 58  0.0000000  0  6  3 12 20 24 13 16
  24328700.890    -2705571.071 5  -2108237.131 2
  22443711.147     4531488.349 7   3531029.100 4
  21388178.171    -3603528.226 8  -2807943.882 8
  21299851.224     2863755.512 8   2231497.464 9
  24518956.374     4181564.701 4   3258360.477 2
  22807530.876    -4197867.225 7  -3271065.442 4
 91 12  4 12 58 30.0000000  0  6  3 12 20 24 13 16
  24318115.519    -2761198.122 5  -2151582.889 2
  22461949.608     4627341.980 7   3605720.250 4
  21377269.917    -3660844.572 9  -2852605.967 8
  21312145.705     2928355.358 8   2281835.005 9
  24533563.463     4258337.322 4   3318183.227 1
  22793993.451    -4269004.443 6  -3326497.022 3
 91 12  4 12 59  0.0000000  0  6  3 12 20 24 13 16
  24307553.233    -2816712.393 4  -2194840.786 3
  22480264.240     4723577.130 7   3680708.654 6
  21366434.519    -3717784.025 9  -2896974.372 8
  21324503.460     2993308.043 8   2332447.481 9
  24548174.146     4335088.143 4   3377989.200 2
  22780507.888    -4339865.724 6  -3381713.596 3
 91 12  4 12 59 30.0000000  0  5  3 12 20 24 16
  24297004.734    -2872124.731 5  -2238019.211 1
  22498646.614     4820180.707 7   3755984.138 4
  21355667.787    -3774366.216 9  -2941064.400 8
  21336930.144     3058601.936 8   2383325.840 9
  22767075.077    -4410461.280 6  -3436723.104 4
 91 12  4 13  0  0.0000000  0  5  3 12 20 24 16
  24286483.823    -2927431.492 5  -2281115.391 1
  22517099.137     4917153.558 7   3831547.415 3
  21344966.092    -3830603.420 9  -2984885.598 8
  21349415.915     3124228.549 8   2434463.444 8
  22753690.847    -4480774.926 6  -3491512.954 5
 91 12  4 13  0 30.0000000  0  5  3 12 20 24 16
  24275976.384    -2982639.589 5  -2324134.503 2
  22535620.606     5014485.955 7   3907390.853 5
  21334329.748    -3886499.736 9  -3028441.162 8
  21361968.519     3190187.162 8   2485859.780 8
  22740366.873    -4550810.559 7  -3546086.181 5
 91 12  4 13  1  0.0000000  0  5  3 12 20 24 16
  24265486.656    -3037746.283 5  -2367074.818 2
  22554209.538     5112178.409 7   3983514.822 4
  21323763.868    -3942027.049 9  -3071709.197 8
  21374586.475     3256483.603 8   2537519.340 8
  22727092.370    -4620552.499 6  -3600430.543 4
 91 12  4 13  1 30.0000000  0  5  3 12 20 24 16
  24255013.402    -3092759.005 5  -2409941.931 6
  22572867.729     5210220.608 7   4059911.343 3
  21313271.122    -3997163.119 9  -3114672.367 9
  21387261.999     3323104.058 8   2589431.381 8
  22713881.700    -4689985.354 7  -3654534.056 5
 91 12  4 13  2  0.0000000  0  5  3 12 20 24 16
  24244573.129    -3147671.875 5  -2452731.187 3
  22591594.273     5308615.705 7   4136582.861 4
  21302857.844    -4051886.932 8  -3157314.295 8
  21400000.780     3390052.948 8   2641599.334 8
  22700731.914    -4759098.240 7  -3708388.241 3
 91 12  4 13  2 30.0000000  0  5  3 12 20 24 16
  24234143.657    -3202490.831 5  -2495447.233 3
  22610379.555     5407355.227 7   4213522.705 5
  21292526.390    -4106190.150 8  -3199628.489 9
  21412806.117     3457339.990 8   2694030.791 8
  22687639.068    -4827886.422 7  -3761989.400 4
 91 12  4 13  3  0.0000000  0  6  3 12 20 24 13 16
  24223732.456    -3257210.437 5  -2538085.915 1
  22629235.004     5506442.086 7   4290733.236 5
  21282270.792    -4160078.607 8  -3241619.495 9
  21425677.415     3524968.019 8   2746727.954 8
  24664804.509       12748.85814      9932.528 2
  22674616.686    -4896336.348 7  -3815327.006 4
 91 12  4 13  3 30.0000000  0  6  3 12 20 24 13 16
  24213330.556    -3311829.987 5  -2580646.630 2
  22648161.807     5605874.400 7   4368212.980 3
  21272093.738    -4213557.174 9  -3283291.116 9
  21438609.858     3592942.581 8   2799695.134 9
  24679341.151       12744.13814      9928.446 1
  22661651.872    -4964451.070 7  -3868403.401 4
 91 12  4 13  4  0.0000000  0  6  3 12 20 24 13 16
  24202959.246    -3366358.786 5  -2623136.480 1
  22667142.862     5705639.973 7   4445952.366 5
  21261991.336    -4266640.874 8  -3324655.033 9
  21451610.654     3661255.517 8   2852925.991 7
  24693878.683       89172.150 4     69482.480 1
  22648750.001    -5032258.744 7  -3921240.555 4
 91 12  4 13  4 30.0000000  0  6  3 12 20 24 13 16
  24192602.018    -3420789.976 5  -2665550.414 3
  22686194.068     5805742.642 7   4523954.425 5
  21251966.273    -4319328.576 9  -3365710.376 9
  21464672.317     3729900.419 8   2906415.510 8
  24708426.109      165570.287 5    129013.409 1
  22635910.777    -5099745.709 7  -3973827.787 4
 91 12  4 13  5  0.0000000  0  6  3 12 20 24 13 16
  24182265.172    -3475126.471 5  -2707890.525 2
  22705303.452     5906177.088 7   4602215.042 4
  21242016.752    -4371610.241 9  -3406449.337 9
  21477793.624     3798846.085 8   2960139.403 8
  24722959.750      241937.068 5    188519.938 1
  22623122.245    -5166920.641 7  -4026171.888 5
 91 12  4 13  5 30.0000000  0  5  3 12 20 24 16
  24171939.407    -3529369.618 5  -2750157.903 1
  22724475.779     6006939.547 7   4680731.254 3
  21232148.794    -4423466.228 9  -3446856.594 8
  21490967.718     3868089.622 8   3014095.390 8
  22610401.141    -5233780.159 7  -4078270.211 4
 91 12  4 13  6  0.0000000  0  5  3 12 20 24 16
  24161633.151    -3583520.093 5  -2792353.033 3
  22743711.661     6108026.218 7   4759500.072 5
  21222358.768    -4474907.759 9  -3486940.899 9
  21504202.051     3937625.823 8   3068279.445 7
  22597742.404    -5300312.886 7  -4130113.879 4
 91 12  4 13  6 30.0000000  0  5  3 12 20 24 16
  24151346.667    -3637577.094 5  -2834475.297 2
  22763012.299     6209435.499 7   4838520.291 4
  21212648.490    -4525941.335 9  -3526707.322 9
  21517492.451     4007459.273 8   3122695.122 7
  22585146.331    -5366504.330 7  -4181691.619 4
 91 12  4 13  7  0.0000000  0  5  3 12 20 24 16
  24141073.689    -3691537.350 5  -2876522.157 2
  22782371.396     6311167.577 7   4917792.045 4
  21203014.661    -4576569.772 9  -3566158.058 9
  21530838.918     4077604.122 8   3177353.438 8
  22572612.904    -5432349.092 7  -4232999.206 5
 91 12  4 13  7 30.0000000  0  5  3 12 20 24 16
  24130823.187    -3745400.755 5  -2918493.657 4
  22801792.250     6413220.692 6   4997313.919 4
  21193455.780    -4626809.539 9  -3605305.921 9
  21544250.126     4148080.839 8   3232270.355 8
  22560152.035    -5497837.758 7  -4284029.344 4
 91 12  4 13  8  0.0000000  0  5  3 12 20 24 16
  24120586.470    -3799176.104 5  -2960396.493 3
  22821269.467     6515582.679 6   5077076.518 4
  21183964.938    -4676678.261 9  -3644164.662 9
  21557724.294     4218876.738 8   3287435.986 8
  22547757.407    -5562989.434 7  -4334796.872 5
 91 12  4 13  8 30.0000000  0  5  3 12 20 24 16
  24110384.235    -3852865.212 5  -3002232.132 2
  22840810.535     6618248.828 6   5157076.116 4
  21174551.157    -4726147.087 9  -3682711.795 9
  21571256.031     4289991.153 8   3342849.814 8
  22535422.145    -5627798.563 7  -4385297.488 4
 91 12  4 13  9  0.0000000  0  5  3 12 20 24 16
  24100172.106    -3906462.940 5  -3043996.512 2
  22860401.075     6721222.163 6   5237315.047 5
  21165219.531    -4775176.373 9  -3720916.433 9
  21584850.413     4361431.738 8   3398517.786 8
  22523155.549    -5692255.713 7  -4435523.826 4
 91 12  4 13  9 30.0000000  0  5  3 12 20 24 16
  24089993.848    -3959969.971 5  -3085690.272 4
  22880055.168     6824498.282 6   5317789.945 4
  21155979.920    -4823737.772 9  -3758756.482 9
  21598504.458     4433191.007 8   3454434.094 7
  22510958.493    -5756361.463 7  -4485476.351 5
 91 12  4 13 10  0.0000000  0  5  3 12 20 24 16
  24079829.078    -4013389.216 5  -3127315.643 3
  22899765.014     6928072.422 6   5398497.076 2
  21146831.748    -4871818.838 9  -3796222.248 9
  21612219.370     4505251.463 8   3510585.093 7
  22498826.787    -5820115.643 7  -4535154.921 4
 91 12  4 13 10 30.0000000  0  5  3 12 20 24 16
  24069684.708    -4066717.165 5  -3168869.856 2
  22919531.539     7031945.171 6   5479436.857 4
  21137774.125    -4919405.708 9  -3833302.931 9
  21625985.550     4577606.006 8   3566965.255 8
  22486766.435    -5883497.802 7  -4584543.621 5
 91 12  4 13 11  0.0000000  0  5  3 12 20 24 16
  24059553.513    -4119936.494 5  -3210339.401 2
  22939356.208     7136131.009 6   5560620.627 3
  21128814.834    -4966500.306 9  -3870000.023 9
  21639808.670     4650260.727 8   3623579.306 8
  22474774.733    -5946497.215 7  -4633634.063 5
 91 12  4 13 11 30.0000000  0  5  3 12 20 24 16
  24049455.613    -4173032.070 5  -3251712.526 1
  22959242.354     7240642.412 6   5642058.080 3
  21119942.166    -5013115.567 9  -3906323.593 9
  21653696.251     4723224.141 8   3680433.914 7
  22462863.982    -6009091.688 7  -4682408.971 6
 91 12  4 13 12  0.0000000  0  5  3 12 20 24 16
  24039363.699    -4226039.750 5  -3293017.188 3
  22979185.736     7345440.688 6   5723719.077 3
  21111149.560    -5059313.965 9  -3942322.343 9
  21667632.711     4796455.780 8   3737497.520 7
  22451023.381    -6071315.776 7  -4730895.271 5
 91 12  4 13 12 30.0000000  0  5  3 12 20 24 16
  24029288.868    -4278961.399 5  -3334254.827 2
  22999183.389     7450520.984 6   5805599.794 5
  21102437.294    -5105105.958 9  -3978004.418 9
  21681618.031     4869965.541 8   3794777.845 8
  22439253.820    -6133169.910 7  -4779093.286 4
 91 12  4 13 13  0.0000000  0  5  3 12 20 24 16
  24019230.231    -4331799.180 4  -3375427.104 3
  23019233.218     7555878.512 6   5887696.560 3
  21093797.866    -5150496.822 9  -4013373.914 9
  21695662.699     4943771.908 8   3852289.294 8
  22427552.332    -6194658.313 7  -4827006.320 5
 91 12  4 13 13 30.0000000  0  5  3 12 20 24 16
  24009196.181    -4384553.881 5  -3416534.632 2
  23039330.704     7661509.971 6   5970006.801 3
  21085240.890    -5195474.738 9  -4048421.637 9
  21709768.233     5017881.140 8   3910036.734 7
  22415919.476    -6255779.810 7  -4874633.447 4
 91 12  4 13 14  0.0000000  0  5  3 12 20 24 16
  23999177.121    -4437219.955 5  -3457573.078 2
  23059485.147     7767417.781 6   6052532.333 4
  21076763.365    -5240015.442 9  -4083128.688 9
  21723925.647     5092291.788 8   3968019.058 8
  22404360.382    -6316534.826 7  -4921975.008 4
 91 12  4 13 14 30.0000000  0  5  3 12 20 24 16
  23989166.751    -4489799.982 5  -3498544.521 3
  23079690.859     7873596.673 6   6135269.115 4
  21068376.965    -5284095.748 9  -4117476.974 9
  21738146.894     5167004.645 8   4026236.852 8
  22392869.641    -6376923.194 7  -4969030.869 5
 91 12  4 13 15  0.0000000  0  5  3 12 20 24 16
  23979183.656    -4542299.776 5  -3539453.433 4
  23099946.042     7980038.169 6   6218210.569 3
  21060075.111    -5327710.899 9  -4151462.803 9
  21752413.110     5241996.531 8   4084672.084 8
  22381450.236    -6436944.387 7  -5015800.629 6
 91 12  4 13 15 30.0000000  0  5  3 12 20 24 16
  23969208.658    -4594720.595 5  -3580300.808 2
  23120249.492     8086738.075 6   6301353.332 4
  21051865.289    -5370862.940 9  -4185087.769 9
  21766735.097     5317240.916 8   4143304.062 8
  22370094.105    -6496602.300 7  -5062287.303 5
 91 12  4 13 16  0.0000000  0  5  3 12 20 24 16
  23959247.463    -4647056.834 5  -3621082.238 2
  23140605.695     8193699.204 6   6384699.642 3
  21043742.422    -5413545.821 9  -4218347.153 9
  21781103.851     5392738.396 8   4202133.258 8
  22358815.017    -6555880.660 7  -5108478.228 5
 91 12  4 13 16 30.0000000  0  5  3 12 20 24 16
  23949306.947    -4699311.676 5  -3661800.280 2
  23161007.163     8300915.754 6   6468244.998 2
  21035710.977    -5455762.953 9  -4251243.612 9
  21795515.480     5468492.186 8   4261162.177 7
  22347608.173    -6614766.845 7  -5154363.560 4
 91 12  4 13 17  0.0000000  0  5  3 12 20 24 16
  23939374.213    -4751488.720 5  -3702457.656 2
  23181459.010     8408381.272 6   6551984.375 3
  21027762.281    -5497526.980 9  -4283787.012 9
  21809978.063     5544489.399 8   4320380.782 8
  22336477.779    -6673256.210 7  -5199939.676 6
 91 12  4 13 17 30.0000000  0  5  3 12 20 24 16
  23929467.270    -4803583.755 5  -3743051.201 4
  23201955.513     8516097.099 6   6635918.755 3
  21019903.226    -5538827.639 9  -4315969.346 9
  21824490.711     5620741.420 8   4379797.930 7
  22325424.724    -6731343.509 7  -5245202.491 5
 91 12  4 13 18  0.0000000  0  5  3 12 20 24 16
  23919565.424    -4855595.232 4  -3783579.636 2
  23222499.392     8624061.703 6   6720047.026 3
  21012131.109    -5579658.198 9  -4347785.366 9
  21839051.941     5697263.802 8   4439425.750 8
  22314447.228    -6789014.698 7  -5290141.085 5
 91 12  4 13 18 30.0000000  0  5  3 12 20 24 16
  23909682.475    -4907509.492 5  -3824032.236 1
  23243095.448     8732285.999 6   6804377.639 4
  21004457.009    -5620003.013 9  -4379222.877 9
  21853664.422     5774069.847 8   4499274.609 7
  22303557.263    -6846257.917 7  -5334746.185 6
 91 12  4 13 19  0.0000000  0  5  3 12 20 24 16
  23899822.893    -4959324.731 5  -3864407.685 2
  23263735.548     8840769.739 6   6888910.405 2
  20996870.475    -5659866.320 9  -4410285.194 9
  21868333.563     5851162.566 8   4559346.854 7
  22292744.654    -6903081.101 7  -5379023.984 5
 91 12  4 13 19 30.0000000  0  5  3 12 20 24 16
  23889978.318    -5011064.428 5  -3904724.298 2
  23284424.526     8949485.725 6   6973624.145 4
  20989373.861    -5699268.554 9  -4440988.236 9
  21883058.772     5928524.433 8   4619628.824 8
  22282006.680    -6959505.787 7  -5422991.262 6
 91 12  4 13 20  0.0000000  0  5  3 12 20 24 16
  23880148.418    -5062719.533 5  -3944975.028 3
  23305161.178     9058440.428 6   7058523.904 3
  20981962.090    -5738205.990 9  -4471329.088 9
  21897830.748     6006165.126 8   4680128.045 8
  22271346.359    -7015517.241 7  -5466636.538 5
 91 12  4 13 20 30.0000000  0  5  3 12 20 24 16
  23870340.104    -5114297.970 5  -3985166.034 4
  23325936.483     9167623.360 6   7143601.516 3
  20974639.054    -5776687.005 9  -4501314.294 9
  21912659.385     6084065.419 8   4740829.571 8
  22260762.488    -7071125.100 7  -5509967.325 5
 91 12  4 13 21  0.0000000  0  5  3 12 20 24 16
  23860532.995    -5165803.189 6  -4025299.957 3
  23346758.868     9277028.026 6   7228851.885 2
  20967405.363    -5814712.991 9  -4530944.935 9
  21927526.691     6162214.242 8   4801724.750 7
  22250262.570    -7126322.609 7  -5552978.363 5
 91 12  4 13 21 30.0000000  0  5  3 12 20 24 16
  23850749.565    -5217235.632 6  -4065377.109 2
  23367618.736     9386651.238 6   7314272.592 4
  20960256.515    -5852264.802 9  -4560206.088 9
  21942443.469     6240606.369 8   4862809.510 7
  22239839.677    -7181100.300 7  -5595662.275 5
 91 12  4 13 22  0.0000000  0  5  3 12 20 24 16
  23840972.732    -5268595.038 6  -4105397.362 2
  23388519.071     9496490.257 6   7399861.403 5
  20953204.201    -5889332.528 9  -4589090.023 9
  21957407.606     6319237.457 8   4924080.480 7
  22229497.439    -7235456.465 7  -5638017.722 5
 91 12  4 13 22 30.0000000  0  5  3 12 20 24 16
  23831213.296    -5319881.898 6  -4145361.153 2
  23409460.170     9606541.649 6   7485615.718 3
  20946244.810    -5925904.295 9  -4617587.507 9
  21972417.621     6398107.975 8   4985538.022 7
  22219229.853    -7289391.045 7  -5680044.664 6
 91 12  4 13 23  0.0000000  0  5  3 12 20 24 16
  23821462.847    -5371098.368 6  -4185270.091 3
  23430443.847     9716800.777 6   7571531.912 2
  20939383.175    -5961967.048 9  -4645688.343 9
  21987473.791     6477228.401 8   5047190.297 7
  22209046.499    -7342913.034 7  -5721750.105 5
 91 12  4 13 23 30.0000000  0  5  3 12 20 24 16
  23811736.375    -5422238.410 6  -4225119.486 3
  23451465.584     9827270.550 6   7657612.249 3
  20932615.353    -5997513.769 9  -4673387.075 9
  22002578.525     6556607.746 8   5109044.318 7
  22198940.799    -7396018.735 7  -5763131.165 5
 91 12  4 13 24  0.0000000  0  5  3 12 20 24 16
  23802015.609    -5473301.469 6  -4264908.872 2
  23472525.414     9937948.584 6   7743854.840 3
  20925948.567    -6032556.405 9  -4700693.033 9
  22017729.449     6636238.680 8   5171094.393 6
  22188915.736    -7448704.191 7  -5804184.747 6
 91 12  4 13 24 30.0000000  0  5  3 12 20 24 16
  23792314.928    -5524291.966 6  -4304641.649 3
  23493626.305    10048827.816 6   7830254.256 3
  20919373.813    -6067107.015 9  -4727615.583 9
  22032930.421     6716114.347 8   5233335.169 6
  22178968.624    -7500970.135 7  -5844911.440 6
 91 12  4 13 25  0.0000000  0  5  3 12 20 24 16
  23782624.735    -5575209.217 6  -4344317.389 1
  23514762.567    10159905.953 6   7916808.642 4
  20912892.907    -6101173.658 9  -4754161.011 9
  22048173.675     6796220.853 8   5295755.832 8
  22169104.242    -7552810.618 7  -5885306.626 6
 91 12  4 13 25 30.0000000  0  5  3 12 20 24 16
  23772951.626    -5626053.061 6  -4383935.985 1
  23535940.500    10271180.290 6   8003515.890 3
  20906499.235    -6134766.787 9  -4780337.472 9
  22063458.582     6876530.617 8   5358334.854 6
  22159324.425    -7604206.570 7  -5925355.403 5
 91 12  4 13 26  0.0000000  0  5  3 12 20 24 16
  23763292.913    -5676829.875 6  -4423502.382 6
  23557146.022    10382641.567 6   8090368.798 2
  20900197.298    -6167889.869 9  -4806147.667 9
  22078777.082     6957029.319 8   5421061.109 6
  22149628.229    -7655161.839 7  -5965060.805 6
 91 12  4 13 26 30.0000000  0  5  3 12 20 24 16
  23753644.094    -5727538.250 6  -4463015.366 1
  23578394.716    10494288.059 6   8177366.076 3
  20893986.189    -6200529.653 9  -4831581.258 9
  22094127.061     7037710.521 8   5483929.574 7
  22140018.080    -7705665.024 7  -6004413.921 6
 91 12  4 13 27  0.0000000  0  5  3 12 20 24 16
  23744001.872    -5778175.815 6  -4502473.174 2
  23599676.391    10606119.793 6   8264507.666 4
  20887864.130    -6232683.118 9  -4856635.903 9
  22109515.692     7118567.343 8   5546934.863 7
  22130495.775    -7755707.914 7  -6043408.369 5
 91 12  4 13 27 30.0000000  0  5  3 12 20 24 16
  23734377.937    -5828739.446 6  -4541873.405 2
  23620984.433    10718136.559 6   8351793.435 1
  20881843.403    -6264336.852 9  -4881301.157 9
  22124937.619     7199624.191 8   5610096.032 6
  22121061.612    -7805282.299 7  -6082037.748 6
 91 12  4 13 28  0.0000000  0  5  3 12 20 24 16
  23724772.883    -5879237.174 6  -4581222.238 1
  23642335.647    10830327.561 6   8439215.013 2
  20875914.098    -6295482.672 9  -4905570.625 9
  22140404.811     7280898.486 8   5673426.647 6
  22111716.182    -7854399.892 7  -6120311.185 6
 91 12  4 13 28 30.0000000  0  5  3 12 20 24 16
  23715181.616    -5929667.348 6  -4620518.499 3
  23663723.140    10942691.598 6   8526771.394 4
  20870086.441    -6326115.957 9  -4929440.714 9
  22155915.176     7362404.290 7   5736937.668 7
  22102455.596    -7903061.438 7  -6158229.264 6
 91 12  4 13 29  0.0000000  0  5  3 12 20 24 16
  23705588.568    -5980030.321 6  -4659762.356 2
  23685137.017    11055225.340 6   8614459.987 4
  20864355.301    -6356237.215 9  -4952911.828 9
  22171473.511     7444161.222 7   5800644.341 6
  22093278.945    -7951278.729 7  -6195801.179 5
 91 12  4 13 29 30.0010000  0  5  3 12 20 24 16
  23696021.280    -6030333.919 6  -4698959.964 2
  23706585.066    11167923.965 6   8702277.112 2
  20858724.014    -6385839.129 9  -4975978.256 9
  22187081.303     7526173.393 7   5864549.919 7
  22084184.139    -7999068.366 7  -6233039.849 6
 91 12  4 13 30  0.0010000  0  5  3 12 20 24 16
  23686461.806    -6080567.991 6  -4738103.389 4
  23728058.309    11280783.384 6   8790219.509 2
  20853188.631    -6414909.722 9  -4998630.655 9
  22202729.873     7608420.438 8   5928638.522 6
  22075171.172    -8046424.727 7  -6269940.902 5
 91 12  4 13 30 30.0010000  0  5  3 12 20 24 16
  23676910.115    -6130736.627 6  -4777195.810 2
  23749566.924    11393802.453 6   8878286.298 2
  20847756.395    -6443458.884 9  -5020876.759 9
  22218424.302     7690890.371 8   5992900.801 7
  22066242.157    -8093349.581 7  -6306505.701 5
 91 12  4 13 31  0.0010000  0  5  3 12 20 24 16
  23667377.916    -6180841.762 6  -4816238.716 1
  23771105.204    11506975.873 6   8966473.393 2
  20842426.087    -6471482.800 9  -5042713.578 9
  22234159.512     7773573.010 7   6057328.818 7
  22057395.874    -8139837.021 7  -6342729.676 6
 91 12  4 13 31 30.0010000  0  5  3 12 20 24 16
  23657858.299    -6230879.025 6  -4855228.774 3
  23792667.182    11620305.280 6   9054782.015 3
  20837191.719    -6498977.924 9  -5064138.345 9
  22249933.096     7856459.513 7   6121915.695 6
  22048637.138    -8185859.397 7  -6378591.262 6
 91 12  4 13 32  0.0010000  0  5  3 12 20 24 16
  23648346.185    -6280855.227 6  -4894171.253 3
  23814261.233    11733780.962 6   9143204.613 2
  20832058.965    -6525953.377 9  -5085158.176 9
  22265737.548     7939533.111 7   6186648.365 6
  22039970.750    -8231398.779 7  -6414076.474 5
 91 12  4 13 32 30.0010000  0  5  3 12 20 24 16
  23638845.170    -6330769.505 6  -4933065.492 4
  23835881.965    11847401.117 6   9231739.802 4
  20827025.153    -6552416.097 9  -5105778.479 9
  22281583.672     8022805.763 7   6251536.128 7
  22031399.970    -8276446.127 7  -6449178.305 6
 91 12  4 13 33  0.0010000  0  5  3 12 20 24 16
  23629358.237    -6380617.997 6  -4971908.463 3
  23857528.472    11961166.510 5   9320388.119 2
  20822087.265    -6578358.592 9  -5125993.405 9
  22297473.579     8106278.338 8   6316579.684 6
  22022923.649    -8320995.822 7  -6483892.340 6
 91 12  4 13 33 30.0010000  0  5  3 12 20 24 16
  23619879.698    -6430397.890 6  -5010697.926 2
  23879209.163    12075077.207 5   9409149.708 2
  20817247.726    -6603783.013 9  -5145804.646 9
  22313394.966     8189945.215 7   6381774.648 6
  22014540.547    -8365055.606 7  -6518224.625 6
 91 12  4 13 34  0.0010000  0  5  3 12 20 24 16
  23610428.136    -6480111.868 6  -5049436.079 2
  23900910.237    12189127.312 5   9498019.896 3
  20812509.207    -6628685.102 9  -5165208.880 9
  22329351.706     8273805.599 7   6447120.387 7
  22006245.586    -8408643.715 7  -6552189.374 6
 91 12  4 13 34 30.0010000  0  5  3 12 20 24 16
  23600975.091    -6529768.544 6  -5088129.575 3
  23922638.899    12303305.273 5   9586989.728 3
  20807867.815    -6653070.414 9  -5184210.418 9
  22345345.634     8357862.263 7   6512619.069 6
  21998038.470    -8451779.894 7  -6585801.970 6
 91 12  4 13 35  0.0010000  0  5  3 12 20 24 16
  23591540.317    -6579365.321 6  -5126776.431 4
  23944386.145    12417611.000 5   9676059.131 3
  20803328.350    -6676929.932 9  -5202802.243 9
  22361378.841     8442110.592 7   6578267.112 6
  21989917.400    -8494452.086 7  -6619053.018 6
 91 12  4 13 35 30.0010000  0  5  3 12 20 24 16
  23582115.437    -6628900.073 6  -5165374.944 2
  23966165.465    12532043.732 5   9765227.453 2
  20798888.125    -6700265.751 9  -5220986.001 9
  22377449.515     8526551.170 7   6644064.959 6
  21981887.159    -8536643.308 7  -6651929.286 6
 91 12  4 13 36  0.0010000  0  5  3 12 20 24 16
  23572701.062    -6678372.546 6  -5203924.920 2
  23987966.075    12646600.582 5   9854492.512 3
  20794548.326    -6723065.277 9  -5238751.863 9
  22393552.262     8611193.992 7   6710020.386 7
  21973951.358    -8578333.497 7  -6684415.133 6
 91 12  4 13 36 30.0010000  0  5  3 12 20 24 16
  23563296.860    -6727788.194 5  -5242430.593 2
  24009783.471    12761273.510 5   9943848.064 2
  20790310.767    -6745333.058 9  -5256103.382 9
  22409695.790     8696024.648 7   6776122.192 6
  21966116.577    -8619528.821 7  -6716515.375 6
 91 12  4 13 37  0.0010000  0  6  3 12 20 24 17 16
  23553907.666    -6777146.752 6  -5280891.769 2
  24031631.755    12876059.644 5  10033291.749 2
  20786177.229    -6767062.997 9  -5273035.808 9
  22425871.094     8781022.222 7   6842354.060 6
  24710360.068     -220843.625 4   -172086.241 1
  21958369.343    -8660234.142 7  -6748233.792 6
 91 12  4 13 37 30.0010000  0  6  3 12 20 24 17 16
  23544525.365    -6826449.960 6  -5319309.832 4
  24053491.712    12990954.201 5  10122819.953 2
  20782144.728    -6788249.916 9  -5289545.098 9
  22442072.784     8866178.552 7   6908709.630 6
  24693025.475     -311947.620 4   -243076.362 1
  21950714.142    -8700457.478 7  -6779576.641 6
 91 12  4 13 38  0.0010000  0  6  3 12 20 24 17 16
  23535149.049    -6875699.245 6  -5357685.903 4
  24075377.461    13105952.836 6  10212429.294 3
  20778219.843    -6808878.118 9  -5305619.027 9
  22458305.640     8951486.452 7   6975183.294 6
  24675716.657     -402900.969 4   -313949.127 2
  21943151.270    -8740210.122 7  -6810552.724 6
 91 12  4 13 38 30.0010000  0  6  3 12 20 24 17 16
  23525788.630    -6924895.057 6  -5396020.291 3
  24097282.091    13221052.235 5  10302117.144 2
  20774401.683    -6828958.755 9  -5321266.273 9
  22474568.178     9036926.068 7   7041759.603 6
  24658439.318     -493703.704 4   -384704.493 2
  21935674.445    -8779491.530 7  -6841161.603 6
 91 12  4 13 39  0.0010000  0  6  3 12 20 24 17 16
  23516440.199    -6974036.232 6  -5434312.097 3
  24119200.525    13336250.717 5  10391882.171 2
  20770681.261    -6848498.143 9  -5336491.768 9
  22490855.601     9122501.075 7   7108441.431 6
  24641189.865     -584358.657 4   -455344.776 2
  21928294.155    -8818282.031 7  -6871387.958 6
 91 12  4 13 39 30.0010000  0  6  3 12 20 24 17 16
  23507093.583    -7023120.055 6  -5472559.196 2
  24141136.932    13451548.085 5  10481724.314 2
  20767065.454    -6867498.002 9  -5351296.847 9
  22507167.017     9208224.508 7   7175238.891 6
  24623976.377     -674845.490 4   -525853.994 3
  21921007.398    -8856567.378 7  -6901220.685 6
 91 12  4 13 40  0.0010000  0  6  3 12 20 24 17 16
  23497771.537    -7072149.138 6  -5510763.633 1
  24163096.129    13566938.766 5  10571639.088 3
  20763550.998    -6885966.488 9  -5365687.882 9
  22523506.005     9294094.903 7   7242150.864 6
  24606796.166     -765143.928 4   -596216.446 1
  21913818.379    -8894353.509 7  -6930664.406 6
 91 12  4 13 40 30.0010000  0  6  3 12 20 24 17 16
  23488448.584    -7121123.727 6  -5548925.631 3
  24185076.911    13682419.524 5  10661624.077 3
  20760134.856    -6903914.826 9  -5379673.601 9
  22539870.470     9380125.792 7   7309187.918 6
  24589634.558     -855262.725 4   -666438.839 1
  21906719.002    -8931644.757 7  -6959722.514 6
 91 12  4 13 41  0.0010000  0  6  3 12 20 24 17 16
  23479137.026    -7170038.733 6  -5587041.231 4
  24207065.495    13797992.739 5  10751681.090 1
  20756821.252    -6921325.024 9  -5393239.983 9
  22556280.812     9466345.721 7   7376372.273 6
  24572522.700     -945202.825 4   -736522.084 1
  21899718.237    -8968446.450 7  -6988399.148 6
 91 12  4 13 41 30.0010000  0  6  3 12 20 24 17 16
  23469843.458    -7218898.155 6  -5625113.500 3
  24229080.148    13913651.223 5  10841804.579 3
  20753611.371    -6938191.860 9  -5406382.974 9
  22572729.230     9552752.411 7   7443702.138 6
  24555439.024    -1034965.831 4   -806467.212 2
  21892805.630    -9004764.778 7  -7016699.136 6
 91 12  4 13 42  0.0010000  0  6  3 12 20 24 17 16
  23460553.800    -7267701.201 6  -5663141.796 2
  24251099.915    14029392.804 5  10931992.803 3
  20750505.529    -6954521.174 9  -5419107.117 9
  22589202.812     9639357.067 7   7511186.288 6
  24538387.736    -1124558.479 4   -876279.671 1
  21885988.946    -9040593.322 7  -7044617.475 6
 91 12  4 13 42 30.0010000  0  6  3 12 20 24 17 16
  23451280.911    -7316450.854 6  -5701128.510 1
  24273142.454    14145211.871 5  11022241.468 2
  20747500.113    -6970312.050 9  -5431411.691 9
  22605726.789     9726167.346 7   7578830.632 5
  24521368.207    -1213995.925 4   -945971.210 3
  21879266.407    -9075913.518 7  -7072139.686 6
 91 12  4 13 43  0.0010000  0  6  3 12 20 24 17 16
  23442011.635    -7365139.748 6  -5739067.864 4
  24295191.293    14261112.582 5  11112553.686 3
  20744598.421    -6985553.124 9  -5443287.862 9
  22622284.027     9813167.088 7   7646622.637 6
  24504383.177    -1303262.149 4  -1015529.314 3
  21872648.185    -9110696.500 7  -7099243.302 6
 91 12  4 13 43 30.0010000  0  6  3 12 20 24 17 16
  23432759.146    -7413773.245 6  -5776964.107 2
  24317259.606    14377086.868 5  11202923.223 2
  20741804.641    -7000249.503 9  -5454739.589 9
  22638866.131     9900327.590 7   7714539.880 6
  24487430.500    -1392354.251 4  -1084951.719 2
  21866133.984    -9144928.126 8  -7125917.292 6
 91 12  4 13 44  0.0010000  0  6  3 12 20 24 17 16
  23423514.142    -7462347.367 6  -5814814.076 3
  24339351.320    14493135.536 5  11293350.743 2
  20739116.104    -7014382.040 9  -5465751.951 9
  22655485.736     9987643.798 7   7782578.488 6
  24470510.210    -1481254.302 4  -1154224.451 4
  21859725.025    -9178602.599 8  -7152157.136 6
 91 12  4 13 44 30.0010000  0  6  3 12 20 24 17 16
  23414285.926    -7510867.257 6  -5852621.775 2
  24361440.626    14609250.384 5  11383829.910 2
  20736536.089    -7027932.166 9  -5476310.493 9
  22672120.610    10075085.891 7   7850715.185 6
  24453634.297    -1569959.267 4  -1223345.212 1
  21853424.589    -9211722.342 7  -7177964.712 6
 91 12  4 13 45  0.0010000  0  6  3 12 20 24 17 16
  23405060.118    -7559332.600 6  -5890386.961 2
  24383548.813    14725428.780 5  11474358.469 3
  20734067.005    -7040896.821 9  -5486412.821 9
  22688782.479    10162636.527 7   7918936.430 5
  24436796.163    -1658456.930 5  -1292304.434 3
  21847226.080    -9244299.063 7  -7203349.167 6
 91 12  4 13 45 30.0010000  0  6  3 12 20 24 17 16
  23395849.283    -7607747.141 6  -5928112.549 2
  24405673.211    14841664.133 5  11564931.422 2
  20731714.541    -7053278.085 9  -5496060.565 9
  22705471.937    10250309.743 7   7987253.203 6
  24420000.293    -1746741.928 5  -1361097.927 2
  21841122.011    -9276353.655 7  -7228326.758 6
 91 12  4 13 46  0.0010000  0  6  3 12 20 24 17 16
  23386645.061    -7656108.898 6  -5965797.003 3
  24427805.688    14957955.463 5  11655548.068 2
  20729464.894    -7065083.812 9  -5505259.838 9
  22722176.961    10338116.027 7   8055673.666 5
  24403238.591    -1834816.874 5  -1429727.744 3
  21835121.352    -9307900.196 8  -7252908.467 7
 91 12  4 13 46 30.0010000  0  6  3 12 20 24 17 16
  23377449.825    -7704411.811 6  -6003435.635 2
  24449946.263    15074305.905 5  11746210.742 2
  20727324.381    -7076324.880 9  -5514019.123 9
  22738911.074    10426070.527 7   8124209.641 6
  24386508.073    -1922690.469 5  -1498200.667 3
  21829215.448    -9338940.092 8  -7277095.388 6
 91 12  4 13 47  0.0010000  0  6  3 12 20 24 17 16
  23368268.987    -7752658.931 6  -6041030.810 3
  24472090.118    15190709.449 5  11836914.744 2
  20725293.577    -7087019.202 9  -5522352.363 9
  22755678.779    10514177.160 7   8192864.122 6
  24369828.527    -2010366.602 5  -1566519.726 1
  21823405.765    -9369485.806 8  -7300897.227 6
 91 12  4 13 47 30.0010000  0  6  3 12 20 24 17 16
  23359100.729    -7800849.403 6  -6078581.827 3
  24494258.578    15307164.208 5  11927658.751 2
  20723360.808    -7097156.395 9  -5530251.475 9
  22772473.148    10602442.809 7   8261642.551 5
  24353182.834    -2097853.192 5  -1634691.111 1
  21817689.021    -9399527.583 8  -7324306.402 7
 91 12  4 13 48  0.0010000  0  6  3 12 20 24 17 16
  23349941.773    -7848981.347 6  -6116087.238 3
  24516422.832    15423669.087 5  12018441.766 2
  20721539.284    -7106729.743 9  -5537711.236 9
  22789298.403    10690859.191 7   8330538.410 6
  24336568.045    -2185152.955 5  -1702716.906 4
  21812070.923    -9429051.169 8  -7347311.791 7
 91 12  4 13 48 30.0010000  0  6  3 12 20 24 17 16
  23340791.211    -7897063.456 6  -6153553.826 2
  24538597.278    15540212.173 5  12109254.532 2
  20719826.563    -7115733.516 9  -5544727.157 9
  22806150.026    10779409.747 7   8399538.826 6
  24319989.518    -2272274.063 5  -1770603.479 2
  21806549.046    -9458049.085 8  -7369907.554 6
 91 12  4 13 49  0.0010000  0  6  3 12 20 24 17 16
  23331650.228    -7945099.438 6  -6190984.415 1
  24560787.917    15656786.760 5  12200091.893 1
  20718221.178    -7124165.778 9  -5551297.758 9
  22823022.345    10868082.010 7   8468634.061 5
  24303443.675    -2359208.664 5  -1838344.731 3
  21801136.285    -9486508.834 8  -7392083.977 7
 91 12  4 13 49 30.0010000  0  6  3 12 20 24 17 16
  23322515.266    -7993084.182 6  -6228375.129 2
  24582973.164    15773395.285 5  12290955.644 2
  20716727.003    -7132011.132 9  -5557411.036 9
  22839925.551    10956879.923 7   8537827.238 5
  24286927.219    -2445948.228 5  -1905934.014 4
  21795824.265    -9514420.593 8  -7413833.388 7
 91 12  4 13 50  0.0010000  0  6  3 12 20 24 17 16
  23313402.466    -8041015.846 6  -6265724.465 2
  24605169.492    15890036.493 5  12381844.892 2
  20715347.371    -7139277.453 9  -5563073.104 9
  22856844.043    11045798.924 7   8607114.762 5
  24270471.000    -2532482.590 5  -1973363.361 1
  21790616.875    -9541782.267 8  -7435154.168 6
 91 12  4 13 50 30.0010000  0  6  3 12 20 24 17 16
  23304283.087    -8088896.082 6  -6303033.758 4
  24627367.024    16006705.860 5  12472756.025 2
  20714074.448    -7145962.982 9  -5568282.602 9
  22873782.603    11134841.153 7   8676498.290 5
  24254042.667    -2618804.273 5  -2040627.007 2
  21785513.803    -9568595.361 8  -7456047.482 7
 91 12  4 13 51  0.0010000  0  6  3 12 20 24 17 16
  23295181.978    -8136722.855 6  -6340301.380 2
  24649576.248    16123402.228 5  12563688.335 2
  20712913.345    -7152059.944 9  -5573033.490 9
  22890757.163    11224010.237 7   8745980.671 5
  24237669.215    -2704902.121 5  -2107716.245 2
  21780514.770    -9594865.657 8  -7476517.829 6
 91 12  4 13 51 30.0010000  0  6  3 12 20 24 17 16
  23286094.969    -8184493.117 6  -6377524.936 2
  24671784.285    16240125.802 5  12654641.731 3
  20711866.768    -7157564.512 9  -5577322.761 9
  22907749.993    11313309.678 7   8815564.638 5
  24221319.426    -2790778.179 4  -2174632.647 2
  21775617.959    -9620592.247 8  -7496564.515 6
 91 12  4 13 52  0.0010000  0  6  3 12 20 24 17 16
  23277016.964    -8232207.192 6  -6414704.760 2
  24694002.792    16356873.628 5  12745614.036 2
  20710930.215    -7162487.363 9  -5581158.755 9
  22924771.319    11402744.247 7   8885253.904 5
  24205018.811    -2876432.860 5  -2241376.565 2
  21770826.374    -9645763.799 8  -7516178.709 7
 91 12  4 13 52 30.0010000  0  6  3 12 20 24 17 16
  23267950.931    -8279869.715 6  -6451844.341 2
  24716223.114    16473637.854 5  12836599.146 3
  20710104.000    -7166827.693 9  -5584540.831 9
  22941808.211    11492311.697 7   8955046.688 5
  24188758.070    -2961875.136 4  -2307954.944 2
  21766142.107    -9670391.752 8  -7535369.317 6
 91 12  4 13 53  0.0010000  0  6  3 12 20 24 17 16
  23258886.415    -8327480.205 6  -6488943.405 4
  24738450.922    16590416.009 5  12927595.136 2
  20709387.197    -7170595.694 9  -5587476.946 9
  22958881.102    11582006.581 7   9024938.789 5
  24172538.406    -3047120.475 4  -2374379.868 2
  21761560.989    -9694478.599 8  -7554138.285 6
 91 12  4 13 53 30.0010000  0  6  3 12 20 24 17 16
  23249832.073    -8375039.803 6  -6526002.846 3
  24760668.854    16707203.549 4  13018598.317 2
  20708775.009    -7173808.792 9  -5589980.659 9
  22975967.169    11671824.201 7   9094926.525 4
  24156343.016    -3132179.713 4  -2440659.792 3
  21757080.890    -9718013.921 8  -7572477.497 7
 91 12  4 13 54  0.0010000  0  6  3 12 20 24 17 16
  23240800.224    -8422546.512 6  -6563021.072 1
  24782892.456    16824000.006 4  13109608.625 1
  20708271.954    -7176454.423 9  -5592042.191 9
  22993087.717    11761765.407 7   9165010.555 5
  24140202.787    -3217044.175 5  -2506787.942 2
  21752706.609    -9740996.520 8  -7590386.012 6
 91 12  4 13 54 30.0010000  0  6  3 12 20 24 17 16
  23231762.093    -8470009.836 6  -6600005.479 2
  24805120.264    16940792.829 5  13200616.024 1
  20707875.642    -7178538.630 9  -5593666.244 9
  23010227.443    11851819.043 7   9235182.192 5
  24124088.348    -3301722.067 5  -2572770.675 1
  21748433.679    -9763431.534 8  -7607867.829 7
 91 12  4 13 55  0.0010000  0  6  3 12 20 24 17 16
  23222739.825    -8517425.606 6  -6636952.814 2
  24827345.978    17057583.269 4  13291621.478 2
  20707587.539    -7180063.452 9  -5594854.424 9
  23027382.176    11941989.469 7   9305444.843 5
  24108014.377    -3386203.664 5  -2638600.465 1
  21744274.646    -9785295.990 8  -7624905.065 6
 91 12  4 13 55 30.0010000  0  6  3 12 20 24 17 16
  23213725.374    -8564786.377 6  -6673857.332 2
  24849566.911    17174375.857 4  13382628.684 1
  20707402.566    -7181009.363 9  -5595591.507 9
  23044564.184    12032284.231 7   9375804.375 5
  24091978.464    -3470460.915 5  -2704255.484 1
  21740228.359    -9806574.186 8  -7641485.485 6
 91 12  4 13 56  0.0010000  0  6  3 12 20 24 17 16
  23204727.099    -8612098.990 6  -6710724.274 2
  24871792.922    17291160.710 4  13473629.926 2
  20707336.011    -7181373.402 9  -5595875.174 9
  23061771.076    12122694.662 7   9446254.041 6
  24075991.133    -3554489.853 5  -2769732.565 2
  21736288.781    -9827282.825 8  -7657622.072 7
 91 12  4 13 56 30.0010000  0  6  3 12 20 24 17 16
  23195733.327    -8659362.588 6  -6747553.056 3
  24894018.025    17407935.356 5  13564623.110 3
  20707375.588    -7181162.726 9  -5595711.035 9
  23078991.143    12213210.906 7   9516786.145 5
  24060042.786    -3638291.984 5  -2835032.955 2
  21732449.942    -9847430.546 8  -7673321.597 7
 91 12  4 13 57  0.0010000  0  6  3 12 20 24 17 16
  23186745.854    -8706576.285 6  -6784342.955 4
  24916238.051    17524697.936 5  13655606.864
  20707529.377    -7180363.432 9  -5595088.221 9
  23096237.315    12303821.118 7   9587391.480 5
  24044136.092    -3721865.547 5  -2900155.192 2
  21728722.314    -9867032.679 8  -7688595.978 7
 91 12  4 13 57 30.0010000  0  6  3 12 20 24 17 16
  23177771.259    -8753743.148 6  -6821096.362 4
  24938452.963    17641442.478 5  13746576.748 1
  20707794.097    -7178965.016 9  -5593998.544 9
  23113492.457    12394514.186 6   9658061.383 5
  24028277.073    -3805215.738 5  -2965103.394 3
  21725094.222    -9886103.834 8  -7703456.609 6
 91 12  4 13 58  0.0010000  0  6  3 12 20 24 17 16
  23168804.465    -8800861.457 6  -6857811.936 3
  24960664.892    17758167.813 5  13837531.474 3
  20708172.138    -7176970.650 9  -5592444.496 9
  23130774.891    12485287.524 7   9728793.838 5
  24012457.630    -3888352.314 5  -3029885.136 2
  21721562.071    -9904648.489 8  -7717906.991 7
 91 12  4 13 58 30.0010000  0  6  3 12 20 24 17 16
  23159848.769    -8847928.138 6  -6894487.285 3
  24982875.616    17874873.734 5  13928471.123 2
  20708668.580    -7174375.723 9  -5590422.493 9
  23148059.436    12576147.993 6   9799594.159 4
  23996673.542    -3971276.448 5  -3094501.328 2
  21718134.848    -9922656.663 8  -7731939.334 7
 91 12  4 13 59  0.0010000  0  6  3 12 20 24 17 16
  23150902.967    -8894938.306 7  -6931118.569 2
  25005074.649    17991562.260 5  14019397.306 1
  20709276.859    -7171169.434 9  -5587924.085 9
  23165370.942    12667114.036 6   9870476.764 5
  23980943.741    -4053985.809 5  -3158950.143 3
  21714820.336    -9940101.378 8  -7745532.618 7
 91 12  4 13 59 30.0010000  0  6  3 12 20 24 17 16
  23141963.744    -8941900.320 7  -6967712.339 3
  25027278.184    18108222.515 5  14110301.360 2
  20710003.870    -7167364.888 9  -5584959.512 9
  23182695.047    12758181.867 6   9941438.675 4
  23965236.713    -4136486.782 5  -3223236.641 4
  21711606.268    -9956979.914 8  -7758684.727 7
 91 12  4 14  0  0.0010000  0  6  3 12 20 24 17 16
  23133035.026    -8988807.182 6  -7004263.116 1
  25049474.808    18224857.826 5  14201185.963 2
  20710839.980    -7162958.674 9  -5581526.099 9
  23200040.738    12849354.746 6  10012482.460 4
  23949580.656    -4218767.786 5  -3287351.704 3
  21708506.115    -9973276.772 8  -7771383.576 7
 91 12  4 14  0 30.0010000  0  6  3 12 20 24 17 16
  23124117.703    -9035663.025 7  -7040774.173 4
  25071660.945    18341461.358 5  14292045.874 2
  20711795.414    -7157945.057 9  -5577619.402 9
  23217417.020    12940636.029 7  10083610.683 5
  23933964.160    -4300824.544 5  -3351292.031 3
  21705518.986    -9988974.532 8  -7783615.589 6
 91 12  4 14  1  0.0010000  0  6  3 12 20 24 17 16
  23115212.368    -9082472.082 6  -7077248.757 3
  25093842.301    18458025.914 5  14382875.383 2
  20712865.985    -7152330.225 9  -5573244.222 9
  23234805.882    13032026.683 6  10154824.164 4
  23918390.242    -4382655.331 5  -3415056.282 3
  21702642.475   -10004078.613 8  -7795385.006 6
 91 12  4 14  1 30.0010000  0  6  3 12 20 24 17 16
  23106318.725    -9129232.625 7  -7113685.549 4
  25116019.434    18574550.319 5  14473673.559 4
  20714045.062    -7146115.105 9  -5568401.278 9
  23252227.115    13123520.470 7  10226117.999 3
  23902868.797    -4464250.931 5  -3478637.258 2
  21699879.879   -10018598.655 8  -7806699.327 7
 91 12  4 14  2  0.0010000  0  6  3 12 20 24 17 16
  23097428.991    -9175945.422 7  -7150085.109 2
  25138178.593    18691030.514 4  14564437.330 2
  20715343.463    -7139302.698 9  -5563092.915 9
  23269646.865    13215119.398 6  10297493.767 5
  23887385.410    -4545606.016 5  -3542030.827 2
  21697226.730   -10032542.168 8  -7817564.400 6
 91 12  4 14  2 30.0010000  0  6  3 12 20 24 17 16
  23088546.429    -9222613.179 7  -7186449.588 2
  25160342.254    18807460.956 3  14655162.361 2
  20716749.793    -7131901.980 9  -5557326.121 9
  23287101.969    13306828.590 6  10368955.421 5
  23871952.089    -4626717.888 5  -3605234.871 4
  21694678.789   -10045925.164 8  -7827992.716 7
 91 12  4 14  3  0.0010000  0  6  3 12 20 24 17 16
  23079678.577    -9269230.410 7  -7222774.662 3
  25182478.937    18923844.228 3  14745850.575 3
  20718269.445    -7123911.711 9  -5551099.954 9
  23304574.174    13398641.191 6  10440497.663 4
  23856564.051    -4707582.339 5  -3668246.114 2
  21692238.184   -10058758.384 8  -7837992.631 6
 91 12  4 14  3 30.0010000  0  6  3 12 20 24 17 16
  23070812.505    -9315808.189 7  -7259069.028 4
  25204621.606    19040166.763 4  14836491.441 2
  20719906.014    -7115328.137 9  -5544411.463 9
  23322061.072    13490522.066 7  10512093.134 3
  23841221.557    -4788211.895 5  -3731074.339 3
  21689897.988   -10071047.494 8  -7847568.552 6
 91 12  4 14  4  0.0010000  0  6  3 12 20 24 17 16
  23061953.344    -9362349.990 7  -7295335.374 4
  25226748.377    19156421.703 4  14927079.623 2
  20721650.198    -7106156.104 9  -5537264.428 9
  23339555.456    13582453.754 7  10583728.186 3
  23825924.662    -4868608.819 5  -3793721.277 3
  21687668.147   -10082783.043 8  -7856713.142 7
 91 12  4 14  4 30.0010000  0  6  3 12 20 24 17 16
  23053105.874    -9408853.914 7  -7331572.203 2
  25248848.484    19272607.840 4  15017614.276 2
  20723508.018    -7096392.727 9  -5529656.611 9
  23357045.356    13674433.720 6  10655400.843 6
  23810665.214    -4948784.637 5  -3856195.928 3
  21685539.307   -10093951.466 8  -7865415.813 7
 91 12  4 14  5  0.0010000  0  6  3 12 20 24 17 16
  23044270.078    -9455320.647 7  -7367780.037 3
  25270943.496    19388721.724 3  15108092.588 1
  20725480.050    -7086033.042 9  -5521584.142 9
  23374567.329    13766452.767 6  10727103.952 4
  23795446.251    -5028760.861 5  -3918515.057 3
  21683525.605   -10104544.072 8  -7873669.792 7
 91 12  4 14  5 30.0010000  0  6  3 12 20 24 17 16
  23035428.297    -9501746.297 6  -7403955.860 1
  25293022.000    19504763.691 4  15198514.821 1
  20727562.698    -7075085.254 9  -5513053.419 9
  23392082.095    13858512.159 6  10798838.490 4
  23780257.267    -5108531.570 5  -3980674.039 4
  21681619.221   -10114553.489 8  -7881469.344 7
 91 12  4 14  6  0.0010000  0  5  3 20 24 17 16
  23026604.822    -9548128.092 7  -7440097.512 2
  20729754.795    -7063569.818 9  -5504080.354 9
  23409617.853    13950636.700 6  10870623.824 4
  23765121.053    -5188094.941 5  -4042671.452 3
  21679828.566   -10123983.628 8  -7888817.505 7
 91 12  4 14  6 30.0010000  0  5  3 20 24 17 16
  23017785.220    -9594471.895 7  -7476209.555 2
  20732054.192    -7051485.053 9  -5494663.668 9
  23427163.821    14042836.788 6  10942468.010 5
  23750022.898    -5267461.869 5  -4104515.811 2
  21678141.340   -10132843.039 8  -7895720.946 6
 91 12  4 14  7  0.0010000  0  5  3 20 24 17 16
  23008968.916    -9640772.639 7  -7512288.058 3
  20734460.926    -7038828.386 9  -5484801.334 9
  23444720.851    14135109.453 6  11014368.736 5
  23734966.431    -5346605.461 5  -4166186.116 2
  21676564.119   -10141120.356 8  -7902170.802 7
 91 12  4 14  7 30.0010000  0  5  3 20 24 17 16
  23000170.621    -9687027.965 7  -7548331.170 4
  20736979.185    -7025594.389 9  -5474489.147 9
  23462297.984    14227462.528 6  11086332.140 4
  23719949.524    -5425496.466 5  -4227659.614 3
  21675103.833   -10148804.689 8  -7908158.606 7
 91 12  4 14  8  0.0010000  0  5  3 20 24 17 16
  22991378.905    -9733236.058 6  -7584337.469 2
  20739612.266    -7011765.036 9  -5463713.032 9
  23479880.509    14319912.914 6  11158371.370 4
  23704983.589    -5504132.076 5  -4288934.118 3
  21673755.071   -10155875.714 8  -7913668.498 7
 91 12  4 14  8 30.0010000  0  5  3 20 24 17 16
  22982593.174    -9779400.231 6  -7620309.553 3
  20742360.762    -6997331.695 9  -5452466.277 9
  23497487.622    14412445.097 6  11230474.317 5
  23690070.703    -5582509.308 5  -4350007.281 3
  21672528.914   -10162326.371 8  -7918694.996 7
 91 12  4 14  9  0.0010000  0  5  3 20 24 17 16
  22973815.557    -9825515.719 6  -7656243.705 2
  20745220.783    -6982294.946 9  -5440749.336 9
  23515119.025    14505055.984 6  11302638.583 4
  23675204.897    -5660617.257 5  -4410870.615 3
  21671417.893   -10168163.444 8  -7923243.372 7
 91 12  4 14  9 30.0010000  0  5  3 20 24 17 16
  22965052.320    -9871582.843 6  -7692140.137 2
  20748197.720    -6966647.770 9  -5428556.740 9
  23532760.602    14597751.846 6  11374869.063 5
  23660386.155    -5738470.042 5  -4471535.140 3
  21670425.272   -10173401.762 8  -7927325.181 7
 91 12  4 14 10  0.0010000  0  5  3 20 24 17 16
  22956293.287    -9917603.512 6  -7728000.381 3
  20751287.386    -6950394.265 9  -5415891.688 9
  23550405.791    14690513.430 6  11447150.759 4
  23645618.071    -5816090.558 6  -4532018.646 2
  21669539.395   -10178058.553 8  -7930953.852 7
 91 12  4 14 10 30.0010000  0  5  3 20 24 17 16
  22947548.041    -9963576.159 7  -7763823.227 4
  20754498.453    -6933538.999 9  -5402757.716 9
  23568074.067    14783320.716 6  11519468.098 2
  23630894.066    -5893485.733 5  -4592326.574 2
  21668753.035   -10182166.785 8  -7934155.086 7
 91 12  4 14 11  0.0010000  0  5  3 20 24 17 16
  22938811.485   -10009500.271 7  -7799608.278 4
  20757819.561    -6916075.021 9  -5389149.429 9
  23585743.529    14876172.744 6  11591820.262 4
  23616205.450    -5970663.632 5  -4652465.185 2
  21668073.105   -10185740.775 8  -7936940.019 7
 91 12  4 14 11 30.0010000  0  5  3 20 24 17 16
  22930077.337   -10055373.675 7  -7835353.778 3
  20761258.179    -6897999.731 9  -5375064.794 9
  23603424.997    14969075.143 6  11664211.678 4
  23601563.583    -6047624.536 6  -4712434.700 2
  21667498.103   -10188769.025 8  -7939299.697 7
 91 12  4 14 12  0.0010000  0  5  3 20 24 17 16
  22921359.679   -10101197.902 7  -7871060.972 3
  20764813.713    -6879322.549 9  -5360511.162 9
  23621112.451    15062032.818 6  11736646.183 4
  23586957.681    -6124361.979 6  -4772230.101 3
  21667023.527   -10191248.956 8  -7941232.125 7
 91 12  4 14 12 30.0010000  0  5  3 20 24 17 16
  22912648.897   -10146975.690 7  -7906731.969 2
  20768481.086    -6860052.085 9  -5345495.229 9
  23638801.998    15155059.941 6  11809134.805 3
  23572403.972    -6200861.937 6  -4831840.453 3
  21666661.679   -10193162.786 8  -7942723.428 7
 91 12  4 14 13  0.0010000  0  5  3 20 24 17 16
  22903939.929   -10192707.191 7  -7942366.895 2
  20772261.466    -6840189.692 9  -5330018.040 9
  23656535.328    15248175.555 6  11881692.374 4
  23557883.820    -6277104.999 6  -4891250.632 5
  21666411.059   -10194470.471 8  -7943742.414 7
 91 12  4 14 13 30.0010000  0  5  3 20 24 17 16
  22895248.953   -10238394.225 7  -7977967.178 3
  20776153.667    -6819741.441 9  -5314084.349 9
  23674265.343    15341376.002 6  11954316.055 4
  23543434.115    -6353083.406 6  -4950454.595 4
  21666281.247   -10195161.187 8  -7944280.645 7
 91 12  4 14 14  0.0010000  0  5  3 20 24 17 16
  22886566.056   -10284034.654 7  -8013531.153 3
  20780158.597    -6798699.457 9  -5297688.009 9
  23692010.365    15434651.952 6  12026998.538 4
  23529027.285    -6428792.975 5  -5009449.065 4
  21666265.961   -10195229.671 8  -7944334.078 7
 91 12  4 14 14 30.0010000  0  5  3 20 24 17 16
  22877894.555   -10329628.585 7  -8049058.891 5
  20784275.051    -6777058.667 9  -5280825.077 9
  23709773.360    15527981.141 6  12099722.499 4
  23514671.427    -6504241.786 6  -5068240.337 3
  21666372.075   -10194676.235 8  -7943902.797 7
 91 12  4 14 15  0.0010000  0  5  3 20 24 17 16
  22869225.164   -10375178.170 7  -8084552.070 4
  20788508.107    -6754812.569 9  -5263490.459 9
  23727539.671    15621350.585 6  12172477.873 4
  23500361.743    -6579433.271 6  -5126831.089 4
  21666597.532   -10193524.823 8  -7943005.604 8
 91 12  4 14 15 30.0010000  0  5  3 20 24 17 16
  22860565.058   -10420687.644 7  -8120014.011 3
  20792855.410    -6731969.483 9  -5245690.662 9
  23745312.561    15714737.370 6  12245246.715 3
  23486102.105    -6654386.831 6  -5185236.455 2
  21666917.098   -10191810.815 8  -7941670.044 7
 91 12  4 14 16  0.0010000  0  5  3 20 24 17 16
  22851907.062   -10466150.238 7  -8155439.413 3
  20797314.813    -6708537.086 9  -5227431.664 9
  23763089.656    15808143.204 6  12318030.407 4
  23471886.251    -6729092.801 6  -5243448.898 4
  21667354.209   -10189522.251 8  -7939886.756 6
 91 12  4 14 16 30.0010000  0  5  3 20 24 17 16
  22843266.744   -10511565.727 7  -8190828.104 2
  20801882.164    -6684517.794 9  -5208715.352 9
  23780870.346    15901573.481 6  12390833.181 5
  23457713.864    -6803542.641 6  -5301461.759 4
  21667898.620   -10186663.758 8  -7937659.373 7
 91 12  4 14 17  0.0010000  0  5  3 20 24 17 16
  22834635.413   -10556928.860 7  -8226175.998 2
  20806567.320    -6659903.641 9  -5189535.498 9
  23798658.225    15995046.673 6  12463669.363 3
  23443599.640    -6877720.868 6  -5359262.980 5
  21668556.075   -10183215.778 8  -7934972.641 7
 91 12  4 14 17 30.0010000  0  5  3 20 24 17 16
  22826010.974   -10602239.713 7  -8261483.157 4
  20811369.393    -6634690.687 9  -5169889.055 9
  23816453.015    16088563.054 6  12536539.221 2
  23429533.071    -6951632.223 6  -5416856.239 3
  21669327.444   -10179149.890 8  -7931804.431 7
 91 12  4 14 18  0.0010000  0  5  3 20 24 17 16
  22817400.635   -10647505.013 7  -8296754.823 4
  20816279.082    -6608876.265 9  -5149773.931 9
  23834255.588    16182121.518 6  12609441.846 3
  23415519.273    -7025277.217 6  -5474241.962 2
  21670221.419   -10174454.829 8  -7928145.968 7
 91 12  4 14 18 30.0010000  0  5  3 20 24 17 16
  22808790.610   -10692728.133 7  -8331993.626 5
  20821306.018    -6582451.764 9  -5129183.425 9
  23852065.367    16275724.350 6  12682379.056 4
  23401555.242    -7098671.612 6  -5531432.383 4
  21671234.125   -10169140.856 8  -7924005.219 7
 91 12  4 14 19  0.0010000  0  5  3 20 24 17 16
  22800198.856   -10737908.150 7  -8367198.839 4
  20826453.152    -6555417.608 9  -5108117.868 9
  23869885.320    16369361.259 6  12755342.821 4
  23387635.884    -7171836.318 6  -5588443.827 3
  21672361.636   -10163215.452 8  -7919388.040 7
 91 12  4 14 19 30.0010000  0  5  3 20 24 17 16
  22791602.006   -10783046.623 7  -8402371.658 4
  20831710.606    -6527792.755 9  -5086592.014 9
  23887710.386    16463020.692 6  12828324.107 4
  23373750.083    -7244779.933 6  -5645282.991 4
  21673597.373   -10156706.824 8  -7914316.392 7
 91 12  4 14 20  0.0010000  0  5  3 20 24 17 16
  22783030.337   -10828141.396 7  -8437510.441 3
  20837074.785    -6499587.446 9  -5064613.863 9
  23905539.343    16556696.665 6  12901318.280 5
  23359912.566    -7317504.485 6  -5701951.472 3
  21674944.652   -10149647.186 8  -7908815.392 6
 91 12  4 14 20 30.0010000  0  5  3 20 24 17 16
  22774453.869   -10873189.269 7  -8472612.681 3
  20842554.398    -6470803.081 9  -5042184.497 9
  23923366.206    16650387.934 6  12974324.366 4
  23346105.029    -7390009.414 6  -5758448.831 3
  21676391.746   -10142052.982 8  -7902897.857 7
 91 12  4 14 21  0.0010000  0  5  3 20 24 17 16
  22765895.393   -10918191.727 7  -8507679.538 4
  20848142.830    -6441446.702 9  -5019309.418 9
  23941195.757    16744092.954 6  13047341.190 4
  23332361.639    -7462279.115 6  -5814762.895 3
  21677934.485   -10133918.268 8  -7896559.128 7
 91 12  4 14 21 30.0010000  0  5  3 20 24 17 16
  22757331.227   -10963147.022 7  -8542709.639 4
  20853836.487    -6411518.175 9  -4995988.501 9
  23959037.907    16837827.117 6  13120380.700 3
  23318660.530    -7534279.132 6  -5870866.793 3
  21679589.935   -10125219.542 8  -7889780.921 7
 91 12  4 14 22  0.0010000  0  5  3 20 24 17 16
  22748785.646   -11008060.300 7  -8577707.002 4
  20859640.779    -6381008.751 9  -4972214.940 9
  23976882.150    16931589.783 6  13193442.434 2
  23305016.973    -7606003.113 6  -5926755.603 3
  21681356.001   -10115940.470 8  -7882550.491 7
 91 12  4 14 22 30.0010000  0  5  3 20 24 17 16
  22740248.755   -11052931.748 7  -8612671.785 4
  20865557.170    -6349911.614 9  -4947983.414 9
  23994722.206    17025384.401 5  13266529.053 3
  23291413.883    -7677434.383 6  -5982416.339 4
  21683240.503   -10106056.070 8  -7874848.377 7
 91 12  4 14 23  0.0010000  0  5  3 20 24 17 16
  22731715.756   -11097759.784 7  -8647602.725 3
  20871588.105    -6318225.441 9  -4923292.910 9
  24012568.840    17119215.664 6  13339644.209 4
  23277880.366    -7748568.015 6  -6037845.141 3
  21685236.529   -10095550.397 8  -7866662.161 7
 91 12  4 14 23 30.0010000  0  5  3 20 24 17 16
  22723200.748   -11142539.177 7  -8682495.756 2
  20877734.753    -6285933.686 9  -4898130.528 9
  24030447.565    17213081.357 6  13412786.224 4
  23264404.087    -7819418.117 6  -6093053.007 3
  21687353.065   -10084428.718 8  -7857995.941 7
 91 12  4 14 24  0.0010000  0  5  3 20 24 17 16
  22714684.849   -11187279.730 7  -8717358.522 4
  20883994.407    -6253036.960 9  -4872496.727 9
  24048304.112    17306963.310 6  13485940.870 4
  23250964.697    -7890020.179 6  -6148067.590 6
  21689582.017   -10072717.131 8  -7848870.054 7
 91 12  4 14 24 30.0010000  0  5  3 20 24 17 16
  22706179.142   -11231971.332 7  -8752183.137 4
  20890369.199    -6219524.850 9  -4846383.419 9
  24066173.239    17400870.887 6  13559115.500 4
  23237575.668    -7960378.662 6  -6202892.379 4
  21691925.790   -10060405.357 8  -7839276.483 6
 91 12  4 14 25  0.0010000  0  5  3 20 24 17 16
  22697681.828   -11276617.085 7  -8786972.035 4
  20896864.501    -6185396.829 9  -4819790.172 9
  24084052.558    17494796.883 6  13632304.495 4
  23224232.202    -8030511.323 6  -6257541.185 3
  21694378.698   -10047508.765 8  -7829227.206 8
 91 12  4 14 25 30.0010000  0  5  3 20 24 17 16
  22689195.596   -11321215.814 7  -8821724.296 3
  20903478.814    -6150651.587 9  -4792715.988 9
  24101927.078    17588740.488 6  13705507.199 3
  23210931.315    -8100408.405 6  -6312006.437 4
  21696943.723   -10034032.838 8  -7818726.523 8
 91 12  4 14 26  0.0010000  0  5  3 20 24 17 16
  22680715.959   -11365759.844 7  -8856433.948 4
  20910207.671    -6115296.187 9  -4765166.350 9
  24119809.101    17682709.790 6  13778729.907 3
  23197679.288    -8170042.473 6  -6366266.753 4
  21699621.162   -10019958.123 8  -7807759.234 7
 91 12  4 14 26 30.0010000  0  5  3 20 24 17 16
  22672255.221   -11410243.902 7  -8891096.854 5
  20917048.924    -6079335.105 9  -4737144.748 9
  24137698.314    17776716.036 6  13851981.400 4
  23184480.624    -8239391.694 6  -6420305.089 5
  21702414.924   -10005285.942 8  -7796326.398 8
 91 12  4 14 27  0.0010000  0  5  3 20 24 17 16
  22663801.376   -11454670.683 7  -8925715.131 4
  20924002.609    -6042779.133 9  -4708659.592 9
  24155590.528    17870752.911 6  13925256.782 2
  23171336.823    -8308462.860 6  -6474126.759 2
  21705316.320    -9990036.544 8  -7784443.775 7
 91 12  4 14 27 30.0010000  0  5  3 20 24 17 16
  22655355.331   -11499045.703 7  -8960293.058 5
  20931067.521    -6005656.130 9  -4679732.592 9
  24173495.342    17964815.832 6  13998552.436 2
  23158243.680    -8377260.485 6  -6527735.281 3
  21708331.927    -9974203.954 8  -7772106.713 8
 91 12  4 14 28  0.0010000  0  5  3 20 24 17 16
  22646920.367   -11543371.644 7  -8994832.762 3
  20938237.956    -5967977.305 9  -4650372.499 9
  24191398.340    18058897.887 6  14071863.009 2
  23145200.916    -8445806.645 6  -6581147.877 4
  21711453.666    -9957791.895 8  -7759318.130 8
 91 12  4 14 28 30.0010000  0  5  3 20 24 17 16
  22638498.595   -11587648.931 7  -9029334.545 4
  20945511.817    -5929754.563 9  -4620588.572 9
  24209303.450    18152996.335 6  14145186.359 1
  23132200.713    -8514118.453 6  -6634377.864 5
  21714681.241    -9940813.751 8  -7746088.446 7
 91 12  4 14 29  0.0010000  0  5  3 20 24 17 16
  22630073.228   -11631876.772 7  -9063797.798 5
  20952888.809    -5891001.970 9  -4590391.759 9
  24227211.858    18247104.733 6  14218517.447 3
  23119249.982    -8582200.644 6  -6687428.903 3
  21718023.324    -9923244.771 8  -7732398.353 8
 91 12  4 14 29 30.0010000  0  5  3 20 24 17 16
  22621663.445   -11676079.540 7  -9098241.530 6
  20960356.944    -5851739.316 9  -4559797.507 9
  24245111.855    18341196.982 6  14291835.997 2
  23106334.326    -8650060.685 6  -6740306.852 4
  21721480.229    -9905096.677 8  -7718257.013 7
 91 12  4 14 30  0.0010000  0  5  3 20 24 17 16
  22613268.965   -11720216.354 7  -9132633.874 5
  20967938.994    -5811899.569 9  -4528753.572 9
  24263024.766    18435318.005 6  14365176.892 4
  23093469.624    -8717651.387 6  -6792974.909 4
  21725049.253    -9886346.117 8  -7703646.215 7
 91 12  4 14 30 30.0010000  0  5  3 20 24 17 16
  22604881.658   -11764302.937 7  -9166987.075 4
  20975631.678    -5771478.436 9  -4497256.621 9
  24280937.658    18529457.649 5  14438532.317 3
  23080663.991    -8784975.091 6  -6845434.922 3
  21728731.004    -9867002.556 8  -7688573.338 8
 91 12  4 14 31  0.0010000  0  5  3 20 24 17 16
  22596505.763   -11808336.344 7  -9201298.812 4
  20983440.965    -5730433.699 9  -4465273.725 9
  24298844.566    18623609.490 5  14511897.241 4
  23067900.919    -8852022.778 6  -6897679.858 3
  21732524.594    -9847063.662 8  -7673036.578 8
 91 12  4 14 31 30.0010000  0  5  3 20 24 17 16
  22588128.367   -11852316.235 7  -9235568.875 3
  20991375.579    -5688744.889 9  -4432788.968 9
  24316770.651    18717764.761 5  14585264.842 2
  23055195.415    -8918790.382 6  -6949706.572 4
  21736427.877    -9826552.092 8  -7657053.572 8
 91 12  4 14 32  0.0010000  0  5  3 20 24 17 16
  22579771.056   -11896246.932 7  -9269800.579 2
  20999428.907    -5646427.538 9  -4399814.441 9
  24334690.140    18811914.213 5  14658627.905 4
  23042541.181    -8985291.519 6  -7001525.629 5
  21740437.308    -9805469.385 8  -7640625.521 7
 91 12  4 14 32 30.0010000  0  5  3 20 24 17 16
  22571419.434   -11940121.068 7  -9303988.236 4
  21007597.947    -5603497.763 9  -4366362.704 9
  24352594.953    18906039.488 5  14731972.109 2
  23029938.197    -9051515.674 6  -7053128.880 4
  21744564.843    -9783790.297 8  -7623732.764 7
 91 12  4 14 33  0.0010000  0  5  3 20 24 17 16
  22563087.008   -11983931.644 7  -9338126.351 4
  21015878.808    -5559976.464 9  -4332450.043 9
  24370500.046    19000126.714 5  14805286.656 3
  23017396.394    -9117454.650 6  -7104509.900 4
  21748805.717    -9761498.966 8  -7606362.925 6
 91 12  4 14 33 30.0010000  0  5  3 20 24 17 16
  22554759.973   -12027681.970 7  -9372217.529 4
  21024265.208    -5515909.816 9  -4298112.418 9
  24388402.469    19094184.353 5  14878578.178 3
  23004894.744    -9183114.271 6  -7155673.245 4
  21753167.993    -9738585.234 8  -7588508.102 7
 91 12  4 14 34  0.0010000  0  5  3 20 24 17 16
  22546446.114   -12071373.086 7  -9406262.574 5
  21032755.018    -5471300.837 9  -4263352.211 9
  24406299.778    19188225.306 6  14951856.681 2
  22992455.758    -9248494.014 6  -7206618.493 4
  21757644.200    -9715043.457 8  -7570163.894 8
 91 12  4 14 34 30.0010000  0  5  3 20 24 17 16
  22538145.167   -12115010.826 7  -9440266.024 5
  21041345.272    -5426147.224 9  -4228167.606 9
  24424186.880    19282249.176 5  15025121.868 3
  22980069.523    -9313592.247 6  -7257344.368 3
  21762238.214    -9690899.991 8  -7551350.847 7
 91 12  4 14 35  0.0010000  0  5  3 20 24 17 16
  22529844.221   -12158595.787 7  -9474228.347 4
  21050041.954    -5380443.838 9  -4192554.615 9
  24442087.802    19376275.831 6  15098389.243 3
  22967732.778    -9378418.933 6  -7307858.662 3
  21766946.754    -9666175.636 8  -7532085.155 7
 91 12  4 14 35 30.0010000  0  5  3 20 24 17 16
  22521563.639   -12202127.790 7  -9508149.402 4
  21058848.660    -5334175.685 9  -4156501.551 9
  24459976.107    19470321.440 5  15171671.352 2
  22955443.985    -9442986.081 6  -7358170.724 4
  21771753.330    -9640895.132 8  -7512386.092 7
 91 12  4 14 36  0.0010000  0  5  3 20 24 17 16
  22513292.375   -12245607.757 7  -9542029.915 4
  21067762.092    -5287332.449 9  -4120000.356 9
  24477880.624    19564371.003 6  15244956.545 4
  22943210.650    -9507290.043 6  -7408277.710 4
  21776668.428    -9615074.380 8  -7492266.058 7
 91 12  4 14 36 30.0010000  0  5  3 20 24 17 16
  22505029.488   -12289033.872 7  -9575868.464 4
  21076783.453    -5239924.081 8  -4083058.811 9
  24495769.540    19658411.968 6  15318235.056 2
  22931022.284    -9571338.061 6  -7458185.254 4
  21781687.843    -9588705.254 8  -7471718.742 8
 91 12  4 14 37  0.0010000  0  5  3 20 24 17 16
  22496773.807   -12332398.177 7  -9609658.839 4
  21085916.025    -5191937.328 9  -4045666.567 9
  24513668.647    19752454.979 6  15391515.126 3
  22918885.483    -9635132.299 6  -7507895.053 4
  21786814.595    -9561762.623 8  -7450724.523 7
 91 12  4 14 37 30.0010000  0  5  3 20 24 17 16
  22488530.708   -12375698.902 7  -9643399.664 4
  21095153.524    -5143373.563 9  -4007824.712 9
  24531572.553    19846504.664 6  15464800.866 3
  22906793.354    -9698660.738 6  -7557397.745 3
  21792051.685    -9534244.373 8  -7429281.772 7
 91 12  4 14 38  0.0010000  0  5  3 20 24 17 16
  22480307.712   -12418935.830 7  -9677090.807 5
  21104505.550    -5094236.355 9  -3969536.035 9
  24549471.660    19940555.780 6  15538087.260 3
  22894759.387    -9761906.058 6  -7606679.818 4
  21797398.484    -9506141.597 8  -7407383.547 7
 91 12  4 14 38 30.0010000  0  5  3 20 24 17 16
  22472087.996   -12462111.177 7  -9710733.968 5
  21113967.005    -5044522.666 9  -3930798.129 9
  24567360.576    20034619.596 5  15611383.516 3
  22882773.077    -9824875.892 6  -7655747.242 5
  21802857.400    -9477456.175 8  -7385031.312 7
 91 12  4 14 39  0.0010000  0  5  3 20 24 17 16
  22463885.678   -12505229.217 7  -9744332.461 6
  21123534.279    -4994242.244 9  -3891618.622 9
  24585262.685    20128685.162 6  15684681.173 3
  22870844.038    -9887572.425 6  -7704601.679 3
  21808424.247    -9448210.393 8  -7362242.431 7
 91 12  4 14 39 30.0010000  0  5  3 20 24 17 16
  22455693.551   -12548286.298 7  -9777883.455 5
  21133208.889    -4943410.219 9  -3852009.300 9
  24603161.181    20222737.861 5  15757968.779 4
  22858967.769    -9949989.081 6  -7753238.032 3
  21814093.316    -9418404.588 8  -7339017.171 7
 91 12  4 14 40  0.0010000  0  5  3 20 24 17 16
  22447508.614   -12591279.126 7  -9811384.383 5
  21142988.410    -4892017.993 9  -3811963.453 9
  24621055.804    20316767.664 5  15831238.578 4
  22847139.453   -10012136.031 6  -7801664.234 4
  21819874.818    -9388023.300 8  -7315343.485 7
 91 12  4 14 40 30.0010000  0  5  3 20 24 17 16
  22439343.169   -12634208.161 7  -9844835.592 4
  21152872.877    -4840073.966 8  -3771487.639 9
  24638941.108    20410773.716 5  15904489.850 4
  22835360.905   -10074025.441 6  -7849889.760 6
  21825769.030    -9357062.239 8  -7291218.024 7
 91 12  4 14 41  0.0010000  0  5  3 20 24 17 16
  22431184.023   -12677074.438 7  -9878237.911 4
  21162859.863    -4787588.791 9  -3730590.153 9
  24656831.228    20504748.498 5  15977716.752 2
  22823635.423   -10135649.186 6  -7897908.269 5
  21831769.986    -9325520.644 8  -7266640.201 7
 91 12  4 14 41 30.0010000  0  5  3 20 24 17 16
  22423040.146   -12719879.500 7  -9911592.502 5
  21172952.371    -4734557.560 8  -3689267.152 9
  24674713.845    20598709.565 5  16050932.932 1
  22811960.006   -10197005.620 6  -7945718.489 2
  21837881.244    -9293395.253 8  -7241607.475 7
 91 12  4 14 42  0.0010000  0  5  3 20 24 17 16
  22414903.179   -12762625.857 7  -9944901.382 5
  21183148.306    -4680974.970 9  -3647514.526 9
  24692586.881    20692675.720 4  16124153.131 1
  22800336.748   -10258089.745 6  -7993316.531 4
  21844107.045    -9260690.697 8  -7216123.445 8
 91 12  4 14 42 30.0010000  0  5  3 20 24 17 16
  22406781.516   -12805308.584 7  -9978160.678 5
  21193450.077    -4626842.034 9  -3605333.059 9
  24710469.795    20786649.311 5  16197379.485 2
  22788766.573   -10318890.197 6  -8040693.512 4
  21850437.757    -9227407.892 8  -7190188.840 8
 91 12  4 14 43  0.0010000  0  5  3 20 24 17 16
  22398669.119   -12847945.044 7 -10011383.921 5
  21203851.978    -4572176.680 8  -3562736.725 9
  24728344.018    20880602.924 5  16270590.361 2
  22777246.445   -10379424.837 6  -8087863.377 4
  21856882.088    -9193567.539 8  -7163819.787 7
 91 12  4 14 43 30.0010000  0  5  3 20 24 17 16
  22390565.430   -12890528.565 7 -10044565.910 6
  21214358.806    -4516964.560 8  -3519714.354 9
  24746215.554    20974533.457 4  16343782.773 2
  22765779.680   -10439696.831 6  -8134828.556 4
  21863425.064    -9159160.438 8  -7137009.104 7
 91 12  4 14 44  0.0010000  0  5  3 20 24 17 16
  22382476.731   -12933050.196 7 -10077699.684 6
  21224969.359    -4461205.671 9  -3476265.903 9
  24764090.073    21068419.563 5  16416940.597 3
  22754362.387   -10499698.519 6  -8181583.130 4
  21870085.551    -9124168.593 8  -7109742.779 7
 91 12  4 14 44 30.0010000  0  5  3 20 24 17 16
  22374395.535   -12975503.540 7 -10110780.242 6
  21235683.635    -4404900.104 8  -3432391.472 9
  24781946.916    21162241.715 5  16490048.529 2
  22742990.952   -10559433.089 6  -8228129.558 4
  21876855.764    -9088587.363 8  -7082017.200 7
 91 12  4 14 45  0.0010000  0  5  3 20 24 17 16
  22366331.109   -13017897.565 7 -10143814.573 4
  21246500.449    -4348056.212 8  -3388097.581 9
  24799783.674    21255994.445 5  16563102.842 2
  22731675.882   -10618904.845 6  -8274471.202 6
  21883736.001    -9052434.723 8  -7053846.353 7
 91 12  4 14 45 30.0010000  0  5  3 20 24 17 16
  22358273.593   -13060223.960 7 -10176796.189 4
  21257422.192    -4290661.757 9  -3343374.680 9
  24817614.428    21349687.649 5  16636110.775 2
  22720410.894   -10678103.419 6  -8320599.980 5
  21890724.168    -9015716.528 8  -7025234.809 7
 91 12  4 14 46  0.0010000  0  5  3 20 24 17 16
  22350235.255   -13102487.435 7 -10209728.813 5
  21268449.455    -4232726.029 8  -3298230.015 9
  24835429.897    21443320.524 5  16709071.281 3
  22709196.843   -10737026.461 7  -8366514.051 5
  21897814.558    -8978454.945 8  -6996199.878 7
 91 12  4 14 46 30.0010000  0  5  3 20 24 17 16
  22342201.122   -13144683.234 7 -10242608.684 5
  21279576.848    -4174241.383 8  -3252657.626 9
  24853248.960    21536924.133 5  16782008.907 1
  22698040.675   -10795672.282 6  -8412212.098 5
  21905005.984    -8940667.339 8  -6966755.042 7
 91 12  4 14 47  0.0010000  0  5  3 20 24 17 16
  22334184.073   -13186827.064 7 -10275448.068 5
  21290808.873    -4115231.171 8  -3206675.685 9
  24871054.830    21630502.021 5  16854926.573 2
  22686930.069   -10854047.895 6  -8457699.605 5
  21912291.537    -8902381.821 8  -6936922.218 7
 91 12  4 14 47 30.0010000  0  5  3 20 24 17 16
  22326173.010   -13228911.499 7 -10308241.172 5
  21302134.134    -4055697.209 8  -3160285.634 9
  24888859.793    21724061.454 5  16927829.835 2
  22675875.513   -10912143.781 6  -8502969.160 5
  21919675.126    -8863587.993 8  -6906693.309 7
 91 12  4 14 48  0.0010000  0  5  3 20 24 17 16
  22318176.639   -13270925.404 7 -10340979.306 4
  21313564.027    -3995637.914 8  -3113486.251 9
  24906655.473    21817622.841 5  17000734.572 1
  22664871.039   -10969948.831 6  -8548012.070 4
  21927157.343    -8824253.554 8  -6876043.143 7
 91 12  4 14 48 30.0010000  0  5  3 20 24 17 16
  22310198.871   -13312866.301 7 -10373660.566 5
  21325088.046    -3935063.866 9  -3066285.740 9
  24924465.253    21911192.637 5  17073646.332 1
  22653931.602   -11027460.260 6  -8592826.173 5
  21934752.288    -8784358.039 8  -6844955.779 7
 91 12  4 14 49  0.0010000  0  5  3 20 24 17 16
  22302231.294   -13354733.923 7 -10406284.718 6
  21336717.290    -3873966.648 8  -3018677.586 9
  24942272.624    22004751.109 6  17146548.830 2
  22643040.747   -11084677.814 6  -8637411.297 4
  21942451.255    -8743890.151 8  -6813422.419 7
 91 12  4 14 49 30.0010000  0  5  3 20 24 17 16
  22294282.597   -13396520.780 7 -10438845.942 6
  21348447.274    -3812328.356 8  -2970647.809 9
  24960078.198    22098300.653 6  17219444.740
  22632208.943   -11141613.485 6  -8681776.771 5
  21950261.152    -8702838.692 8  -6781434.334 7
